GFSSGP_sfc_wetblb_042.txt.gz
Wetbulb
64.58 62.37 62.92 59.03 50.89 50.52 47.53 49.06 53.31 53.30 54.57 57.64 58.97 59.17 59.62 61.87 60.35 57.96 67.29 70.41 74.68 72.19 73.11 74.59 75.67 75.24 75.64 76.59 76.86 76.80 76.98 76.85 76.99 76.71 76.41 75.83 75.29 74.57 74.02 73.15 72.24 71.55 69.43 68.38 67.56 66.61 66.17 66.34 66.32
63.29 60.72 61.39 55.20 48.53 45.58 47.44 51.66 51.99 54.39 58.26 60.51 61.20 60.87 60.92 60.05 65.88 65.44 66.31 70.63 75.02 72.57 72.51 73.31 75.67 75.32 75.24 76.07 76.28 76.29 76.47 76.58 76.73 76.40 75.73 75.31 74.81 74.19 73.32 72.10 71.29 70.51 68.80 67.87 66.87 66.29 66.64 66.98 67.04
65.70 66.92 54.80 50.40 48.51 46.25 47.67 53.16 53.70 56.63 60.50 60.97 60.38 62.74 62.46 62.30 66.57 66.82 69.96 73.06 75.02 73.17 71.56 73.59 75.72 75.42 75.19 75.24 75.55 75.64 75.89 76.07 76.22 75.93 75.53 74.94 74.42 73.87 72.88 71.90 71.22 69.68 68.27 67.69 67.13 67.38 67.83 67.65 67.68
61.95 60.36 54.67 48.00 47.10 50.11 51.51 54.16 55.98 57.29 61.76 62.22 61.64 59.94 64.18 67.77 67.79 68.83 69.83 72.73 74.39 73.66 72.10 75.05 75.34 75.52 75.29 74.92 74.69 74.83 75.20 75.32 75.40 75.18 74.84 74.41 73.75 73.13 72.38 71.71 71.11 70.35 68.64 68.35 68.58 69.16 68.65 68.14 68.59
62.64 56.75 48.98 46.84 47.32 50.59 53.72 55.28 55.90 58.06 59.78 60.35 61.33 59.65 62.05 66.89 70.17 69.27 69.89 71.71 72.67 73.43 73.08 74.34 75.24 75.31 75.47 75.42 74.69 74.30 74.17 74.31 74.43 74.44 74.24 73.75 73.32 72.68 71.91 71.29 70.89 70.57 70.50 69.68 69.65 70.02 69.86 69.89 69.47
55.61 54.36 46.68 45.38 48.18 51.27 53.52 55.48 55.60 57.25 58.62 60.33 60.12 60.53 62.40 67.60 69.28 69.08 69.93 71.06 72.08 72.61 73.60 74.55 74.99 75.09 74.99 74.99 74.67 74.04 73.97 73.82 73.69 73.72 73.82 73.37 72.88 72.26 71.59 71.09 70.95 70.78 70.85 71.03 70.84 70.59 70.67 70.61 70.49
56.33 53.05 48.12 47.66 47.31 48.89 52.29 56.43 54.58 54.82 55.82 58.01 61.16 58.67 62.81 65.87 69.26 69.18 69.17 69.96 71.08 72.64 74.72 74.17 73.58 74.40 74.99 74.54 74.33 74.01 73.63 73.46 73.33 73.16 72.99 72.87 72.50 71.91 71.32 71.05 70.92 70.76 70.98 71.19 71.09 71.13 71.14 71.02 71.00
58.32 55.28 50.64 50.76 49.54 49.60 53.90 54.83 55.98 55.03 54.79 60.51 62.04 58.63 60.74 67.23 69.29 68.52 67.67 68.03 69.70 71.47 74.32 74.97 74.03 72.88 72.45 72.79 74.29 73.83 73.46 73.28 72.88 72.71 72.49 72.37 72.16 71.84 71.32 70.51 70.63 71.00 71.27 71.44 71.34 71.44 71.54 71.67 71.57
57.72 51.70 49.51 50.33 50.53 51.63 55.54 53.65 56.41 57.89 55.87 57.60 59.85 61.64 65.18 67.65 67.86 67.15 66.16 66.51 67.75 69.74 71.07 75.35 74.81 73.18 71.47 71.24 72.76 73.78 73.74 73.31 72.81 72.57 72.27 71.25 69.81 69.55 69.25 69.80 69.65 71.20 71.30 71.62 71.62 71.74 71.81 71.74 71.66
52.08 49.98 51.05 54.73 54.97 53.81 55.25 54.79 54.79 54.71 54.65 56.24 58.20 63.10 65.70 66.95 66.36 65.26 64.35 64.81 66.72 68.46 69.98 73.67 74.84 73.07 71.55 70.59 71.52 72.53 72.49 72.16 71.69 70.61 70.41 70.02 68.85 67.84 67.88 69.00 69.99 70.78 71.52 71.64 71.81 72.03 71.83 71.22 69.13
52.53 49.58 53.87 55.25 56.65 57.12 55.74 55.54 56.72 54.01 52.73 55.38 56.95 61.31 63.87 66.18 66.61 66.35 64.87 65.47 66.62 68.88 70.18 72.15 74.81 74.33 72.61 71.86 72.39 72.24 70.95 70.76 70.69 70.26 69.45 69.55 68.49 67.71 67.82 66.77 67.40 69.50 70.49 69.21 70.27 70.24 69.75 68.62 68.65
48.79 52.61 54.16 55.28 56.80 56.36 55.61 57.63 56.00 55.63 54.74 57.44 58.78 62.08 63.71 63.93 66.72 66.34 65.74 66.21 67.20 68.25 67.71 71.05 75.50 75.73 74.94 73.52 73.67 73.17 72.42 71.45 70.68 70.21 69.39 68.77 67.93 67.08 67.22 67.01 67.63 67.22 67.75 67.15 67.49 67.88 68.31 68.58 69.15
48.16 50.24 52.93 54.33 54.89 55.19 56.54 55.52 55.75 55.79 57.55 58.67 58.76 59.23 62.61 63.69 66.79 67.16 67.92 68.88 68.83 69.41 69.71 71.51 75.61 75.64 76.74 77.47 75.92 73.89 73.05 72.53 71.68 71.04 70.17 68.99 68.91 67.48 67.53 68.34 68.08 67.20 67.60 67.19 66.90 67.98 68.51 68.93 69.14
49.82 49.85 50.27 52.21 53.39 54.37 53.36 54.29 56.08 57.50 59.18 58.22 58.36 58.61 62.49 62.86 63.75 65.76 67.15 68.25 72.11 71.12 75.75 73.00 75.34 76.74 76.80 75.96 76.72 78.01 75.24 73.97 73.09 71.97 71.61 70.60 69.20 69.27 68.78 67.99 68.12 69.04 67.90 68.14 67.25 67.81 68.80 69.35 69.85
49.31 46.45 48.74 49.71 50.58 51.29 53.98 50.84 52.40 57.44 58.95 58.47 58.88 58.39 59.28 63.40 63.77 63.60 65.95 68.07 69.68 69.56 71.84 72.91 74.36 77.53 76.47 76.03 76.40 75.38 75.63 74.35 74.39 73.33 74.16 71.59 71.10 70.59 68.96 69.23 67.95 67.84 69.45 67.96 68.55 67.75 69.26 69.52 70.31
44.02 45.14 42.46 47.96 49.40 50.57 50.24 46.16 52.65 55.69 56.52 56.86 58.26 59.15 59.41 60.47 60.85 63.31 65.96 69.40 71.43 71.14 71.66 74.01 69.99 75.65 76.93 76.19 75.65 75.52 74.11 74.50 74.14 73.71 74.64 74.07 72.00 70.99 71.88 69.60 69.22 69.72 68.54 69.83 68.20 69.07 67.94 68.38 68.07
42.99 38.03 40.41 43.22 49.08 48.85 48.56 46.71 51.95 54.77 54.75 55.39 57.13 58.09 59.60 60.19 61.99 63.28 64.85 66.58 69.00 69.60 70.87 71.68 72.56 72.82 76.03 76.62 75.30 75.43 75.05 74.96 73.88 74.57 73.61 75.27 73.36 72.22 71.19 71.31 70.77 70.62 69.15 67.70 68.49 68.19 67.46 67.42 67.74
38.86 39.81 41.25 40.89 44.98 46.69 46.74 47.42 51.10 53.18 52.87 54.04 55.90 57.41 58.48 60.31 60.87 64.23 66.63 67.18 69.00 72.18 73.76 73.49 73.55 74.71 76.45 74.56 74.15 72.70 72.36 72.74 73.47 72.88 73.98 75.38 73.83 73.28 72.04 72.15 70.35 71.72 68.84 68.25 68.55 67.07 67.88 67.24 67.15
43.54 41.91 40.85 43.42 45.84 44.77 44.83 47.11 49.39 52.26 52.60 52.49 54.65 56.61 57.20 58.02 61.16 64.11 64.39 67.57 66.40 70.93 72.72 72.32 72.26 73.09 74.80 73.64 70.71 69.38 69.23 69.98 71.82 72.80 74.59 75.46 74.16 73.18 72.64 70.85 72.12 70.79 69.17 68.18 68.96 68.78 67.74 66.16 66.04
42.69 40.58 40.07 42.98 44.92 44.66 44.42 44.27 48.15 51.26 51.99 53.64 54.89 55.13 56.27 58.58 60.79 61.49 63.62 67.12 69.92 70.84 71.09 71.36 72.43 73.25 73.36 71.72 70.48 71.62 70.86 69.52 71.21 73.39 74.41 75.33 74.46 73.27 72.79 71.61 70.98 70.58 69.95 69.22 70.08 68.27 65.37 65.32 67.57
41.47 40.07 40.17 39.84 42.98 44.08 42.89 41.86 45.70 49.02 52.01 53.29 54.38 56.09 57.23 57.30 58.06 60.47 63.59 66.54 69.72 69.38 70.00 70.74 71.04 71.49 72.22 70.75 70.95 71.69 71.43 73.85 74.32 73.34 73.40 74.15 74.03 73.47 72.10 71.44 70.90 71.12 69.79 68.26 69.27 67.71 66.42 63.77 67.76
37.35 42.41 41.58 41.10 39.42 34.66 42.70 34.44 43.14 46.78 48.88 51.54 52.77 54.30 55.95 57.19 57.98 58.34 60.99 63.73 67.18 68.42 69.98 72.05 71.26 70.57 70.90 72.34 71.13 70.13 68.73 68.27 71.37 73.26 72.94 73.06 73.47 72.87 72.18 71.49 71.34 71.95 69.43 69.61 68.03 67.97 66.22 67.00 65.18
40.05 43.64 42.17 41.13 39.11 38.29 38.22 35.67 39.78 44.84 45.15 49.03 52.65 54.25 55.71 57.04 57.92 57.33 57.95 60.34 63.85 65.16 65.51 67.73 70.46 71.05 70.74 71.15 71.26 69.51 70.86 71.12 74.15 74.01 73.70 72.09 73.15 71.91 71.42 70.89 70.93 70.29 69.48 69.76 67.49 67.76 68.20 68.38 65.72
45.07 42.15 41.70 40.92 39.21 32.27 36.46 36.55 37.47 41.16 44.48 47.47 51.57 54.23 55.19 56.26 57.27 58.85 60.20 60.16 59.89 62.34 64.38 67.21 67.66 68.03 70.61 71.45 72.89 71.98 71.98 71.61 71.34 72.33 70.83 69.78 70.26 69.67 69.84 69.83 69.86 70.03 70.03 70.58 69.12 69.56 68.32 67.16 66.03
43.24 38.80 31.05 29.52 30.56 29.92 38.52 36.25 39.41 44.49 46.08 47.88 49.85 52.69 54.58 56.19 58.19 58.89 59.17 59.55 60.24 60.70 61.23 62.51 67.55 68.09 71.11 70.37 72.21 70.83 73.04 71.98 74.34 70.96 69.47 68.80 68.13 68.15 68.91 69.35 69.44 69.85 70.41 70.95 69.97 68.51 67.69 67.43 66.32
38.95 35.43 29.80 23.33 25.96 30.40 37.89 32.54 37.80 45.76 47.83 50.10 51.38 52.73 54.79 56.34 57.16 58.50 59.65 61.31 60.19 61.93 63.34 65.06 66.67 68.43 69.94 69.44 69.65 71.96 71.90 72.64 72.21 70.39 69.09 68.62 67.95 68.46 70.26 69.88 70.82 71.10 70.60 69.58 69.39 68.66 68.45 67.80 66.47
39.62 35.61 38.76 33.16 35.40 30.34 34.23 37.56 42.03 45.28 46.10 47.84 50.26 52.08 54.26 55.42 56.57 58.83 60.46 60.48 61.21 62.99 65.49 65.80 66.56 67.32 68.19 69.92 71.19 72.28 72.92 73.52 71.67 71.17 70.57 70.14 70.23 70.39 70.45 71.22 70.55 70.12 69.60 68.97 69.30 68.34 66.95 66.95 66.50
41.47 42.79 34.78 34.89 25.15 23.87 31.33 33.15 35.16 41.44 44.72 46.68 49.11 51.72 53.38 56.53 57.43 59.88 62.29 64.20 65.90 68.02 66.52 67.10 68.46 70.00 71.55 71.80 72.66 72.85 73.59 74.26 72.85 72.65 71.44 70.97 71.53 70.80 71.15 70.38 70.14 69.33 68.84 68.79 68.23 67.16 67.23 66.15 66.00
39.25 37.77 37.87 36.52 33.64 26.60 26.45 32.01 43.87 43.19 43.66 42.93 48.41 51.73 54.90 55.50 56.15 59.91 63.93 65.54 65.91 69.17 70.13 71.03 70.49 71.43 71.12 71.17 71.73 72.43 72.84 73.06 72.97 71.89 70.85 70.90 71.25 70.53 70.06 69.39 67.99 67.09 67.33 68.25 67.38 66.63 66.50 65.13 64.79
41.76 38.88 37.95 31.65 29.92 33.75 32.90 32.75 45.29 43.88 42.37 42.99 42.85 52.21 53.66 56.74 61.97 62.79 64.06 66.90 67.11 67.44 69.36 70.75 71.13 69.59 70.21 71.87 72.08 72.18 71.49 71.49 70.68 69.68 69.24 70.39 69.50 69.69 68.99 68.67 67.56 67.46 66.96 66.83 66.55 65.65 65.60 64.70 63.95

GFSSGP_sfc_wetblb_045.txt.gz
Wetbulb
63.57 59.91 57.49 55.76 43.87 42.21 39.24 43.96 48.61 48.17 49.32 52.74 54.31 56.69 57.63 59.85 59.15 54.51 66.61 70.86 70.56 71.18 73.25 74.03 75.27 76.20 76.78 77.24 77.36 77.15 76.87 76.67 76.65 76.60 76.30 75.88 75.37 74.45 73.78 73.25 72.58 71.62 69.82 68.83 68.10 67.18 66.84 66.77 66.74
61.30 60.08 55.14 52.04 40.86 36.18 39.95 47.84 46.83 50.40 52.29 56.09 58.09 57.33 58.02 58.78 63.24 66.26 68.74 70.68 70.60 71.11 72.26 71.97 75.19 75.87 76.73 76.89 76.88 76.64 76.82 76.75 76.75 76.47 76.03 75.37 75.07 74.20 73.15 72.08 71.14 70.27 69.36 68.48 67.31 66.61 66.60 67.36 67.38
63.11 63.39 53.69 43.69 41.16 40.42 41.18 48.08 49.28 52.39 54.88 57.91 57.02 59.57 59.43 60.90 63.76 65.49 70.93 70.40 70.28 70.49 71.16 72.16 75.09 75.42 76.40 76.81 76.44 76.23 76.51 76.69 76.62 76.25 75.68 75.04 74.49 74.09 73.38 72.01 71.33 70.03 69.14 67.99 67.22 67.24 67.62 67.90 67.88
58.71 56.38 52.29 40.31 38.94 44.98 47.64 50.04 51.58 52.25 55.80 58.56 58.78 57.49 62.38 65.90 65.58 68.31 72.51 70.46 69.81 69.68 71.29 74.49 74.80 74.90 75.77 76.46 76.30 76.04 76.14 76.36 76.36 75.97 75.53 74.81 74.29 73.91 72.85 71.91 71.45 70.68 68.84 68.41 68.36 68.50 68.73 68.52 68.51
60.24 54.05 43.58 38.93 41.05 45.95 49.66 51.53 51.57 50.97 53.81 57.30 58.44 58.00 60.35 65.99 68.10 72.80 72.20 71.39 68.98 67.91 71.42 73.60 74.77 74.65 74.87 75.72 75.93 75.79 75.71 75.70 75.91 75.89 75.35 74.71 74.31 73.49 72.75 71.97 70.92 70.69 70.24 69.49 69.33 70.40 70.35 70.31 70.10
53.69 50.50 41.96 40.92 44.48 48.35 50.60 50.86 50.83 51.11 55.39 56.37 56.37 57.63 58.79 66.27 66.91 69.95 71.96 70.81 70.27 68.42 71.99 72.81 75.15 74.87 74.35 74.57 74.87 74.98 75.01 75.21 75.21 75.09 74.97 74.61 73.81 73.07 72.58 72.02 71.31 71.17 71.24 71.11 71.01 70.95 70.65 70.68 70.88
51.60 48.01 41.89 42.91 44.51 47.18 50.19 52.26 50.47 50.32 50.68 53.51 56.36 56.29 60.19 63.52 66.33 68.65 70.35 71.37 70.74 70.95 71.36 71.50 73.14 74.27 74.97 74.25 73.90 73.67 73.90 74.00 73.96 73.79 73.79 73.63 73.36 72.82 72.33 71.69 71.30 71.29 71.16 71.18 71.26 71.12 71.05 71.05 71.00
50.90 51.97 47.58 48.11 47.26 48.04 53.66 54.59 53.26 50.72 51.67 55.79 58.29 53.96 55.89 63.77 66.47 67.68 69.23 69.68 70.16 71.86 71.42 70.95 71.27 72.65 72.63 72.92 74.24 73.74 73.29 73.29 73.06 73.20 73.16 72.99 73.06 72.50 71.99 70.97 70.93 71.20 71.27 71.47 71.35 71.23 71.40 71.49 71.34
52.91 44.47 45.80 47.69 48.56 50.58 54.80 52.45 55.71 56.47 53.03 54.28 56.12 56.96 63.81 66.34 65.93 64.57 65.05 66.86 69.51 71.70 70.96 70.82 70.29 70.70 70.71 71.39 72.96 73.79 73.52 73.39 73.13 72.91 73.06 71.83 69.69 69.52 69.06 70.18 70.34 71.25 71.28 71.55 71.65 71.55 71.59 71.63 71.68
47.24 43.32 45.38 52.26 53.01 51.79 53.71 53.53 54.36 54.41 52.43 52.85 54.79 59.42 64.82 65.34 64.66 63.07 62.62 63.10 67.71 70.18 71.07 70.64 70.21 69.46 68.39 70.46 70.28 70.84 70.81 70.71 70.66 70.09 69.61 68.94 66.66 65.99 68.42 69.15 70.76 70.98 71.40 71.59 71.76 71.69 71.80 71.27 68.26
47.03 44.72 49.10 50.89 53.30 54.44 54.16 54.63 56.53 54.89 51.15 52.04 52.62 55.07 61.53 63.42 63.37 63.22 62.92 62.39 64.25 69.85 72.16 71.83 70.63 69.76 68.01 68.12 68.85 70.24 69.89 69.52 69.23 68.04 67.46 67.60 67.15 65.29 67.29 64.50 67.17 66.40 69.87 67.65 69.69 69.76 69.60 68.22 67.26
42.84 47.52 50.27 50.78 52.66 52.49 51.58 54.30 53.66 54.61 54.48 55.51 55.74 57.08 57.49 58.99 62.04 62.38 62.47 62.53 64.34 67.45 71.40 71.88 70.91 69.21 67.92 67.93 69.18 69.26 68.35 68.44 68.20 68.43 67.23 67.60 66.12 64.84 63.10 63.99 64.07 64.49 66.61 66.05 65.48 66.72 67.35 66.68 66.57
43.51 45.92 48.14 50.72 52.47 52.48 53.56 51.89 52.07 52.97 56.39 58.27 57.92 57.65 56.57 56.93 61.06 63.51 64.02 63.72 63.47 65.84 68.65 69.21 71.66 70.27 69.34 68.52 69.55 69.30 68.52 68.22 67.61 67.96 67.79 67.30 66.44 64.56 63.93 63.04 63.69 63.62 65.66 65.80 64.34 65.03 66.04 65.96 66.32
43.20 44.64 46.02 47.69 48.16 49.13 50.05 51.56 52.59 53.51 56.14 57.16 57.16 56.37 56.70 56.33 59.75 61.77 63.21 63.26 64.31 64.46 65.66 66.52 65.55 71.63 71.15 70.40 70.11 70.01 69.94 69.44 68.67 68.61 68.20 67.35 66.79 65.15 64.23 63.57 64.06 64.01 65.01 65.42 64.55 64.27 65.18 65.83 66.46
44.33 40.32 43.54 45.35 46.59 47.12 49.19 46.29 48.46 53.30 55.08 54.85 56.62 56.79 56.66 56.28 58.49 60.15 62.77 62.88 63.89 63.90 64.12 66.83 68.98 71.06 72.24 71.83 71.49 72.39 70.76 70.63 69.94 69.50 68.89 68.10 66.52 66.30 65.17 64.61 64.89 64.61 64.94 64.43 64.92 64.02 64.58 66.09 67.06
39.86 39.84 34.15 40.29 45.26 46.96 45.99 40.83 47.89 50.81 52.29 53.21 55.41 56.58 57.24 56.96 57.77 59.98 60.23 62.60 64.55 64.70 63.77 68.14 72.76 73.26 72.38 71.82 71.50 71.33 71.44 71.23 70.80 70.57 69.94 69.12 68.00 67.02 66.38 66.09 64.78 65.14 64.74 64.79 64.53 64.33 63.76 64.62 66.57
36.77 31.70 34.11 37.98 43.12 43.83 43.59 42.09 47.65 50.17 50.83 51.08 52.88 55.09 56.65 56.98 57.01 58.06 60.00 61.07 63.04 63.71 64.01 65.52 68.91 73.10 72.86 72.80 72.53 71.56 70.93 69.75 69.94 70.22 70.68 70.89 69.05 68.19 68.29 66.58 66.40 65.11 65.09 65.24 64.58 64.77 64.23 63.14 63.89
32.61 33.79 37.04 37.09 40.33 41.88 40.47 41.10 46.01 49.13 49.53 49.99 50.65 52.45 55.48 56.39 56.84 57.35 59.17 60.71 60.64 62.34 62.41 64.31 65.01 70.69 72.31 73.22 71.42 70.92 70.49 70.56 70.46 70.31 69.88 71.05 70.49 69.70 67.84 68.21 66.89 66.57 66.06 64.19 63.88 62.87 63.67 62.78 63.89
39.97 38.80 37.84 40.73 43.50 40.89 39.78 40.67 43.19 45.82 46.13 47.94 49.73 50.57 52.05 55.11 57.42 58.06 58.53 59.30 62.24 63.51 65.47 64.89 65.02 66.72 70.29 68.89 68.54 67.48 67.07 66.55 67.56 68.40 68.92 69.80 71.67 70.27 69.17 68.26 67.61 67.90 65.76 64.76 64.02 63.27 61.91 62.58 62.75
38.92 36.68 36.49 40.63 43.38 41.27 39.98 39.40 42.53 44.16 45.09 46.74 48.10 49.97 50.85 53.29 55.10 56.67 57.66 58.51 58.78 61.63 65.23 64.97 64.85 65.36 68.09 67.97 66.01 64.68 64.20 64.84 65.08 66.86 68.71 69.58 71.15 71.12 69.66 68.75 68.07 66.91 66.37 64.63 64.46 63.93 62.29 61.97 61.71
37.45 35.92 36.33 36.62 40.58 41.68 39.64 37.07 39.55 43.33 44.95 46.81 48.40 49.82 50.96 51.72 53.38 55.30 56.89 58.23 59.16 62.15 64.84 65.19 64.97 65.46 66.08 66.07 64.95 64.76 64.61 64.19 65.81 66.46 67.97 69.50 70.73 70.75 70.35 68.82 68.09 67.55 66.60 65.32 64.66 63.75 61.63 59.75 60.53
34.08 40.56 40.15 38.93 36.15 30.07 38.84 28.73 36.64 40.37 41.62 44.26 46.33 47.81 48.43 49.81 52.71 54.50 54.76 56.48 59.43 62.46 63.84 63.93 64.79 65.47 66.37 66.17 63.61 64.09 64.35 63.08 62.81 66.39 68.50 69.42 70.50 70.16 69.77 69.27 68.21 68.18 67.30 65.38 65.16 64.41 62.71 62.30 60.75
37.35 42.25 39.91 39.19 35.55 34.13 34.63 29.56 34.73 39.34 39.38 41.36 43.72 45.94 48.11 49.74 51.34 52.77 53.04 53.74 55.95 61.42 61.06 63.86 65.11 64.79 64.46 65.93 65.49 64.79 63.18 63.87 65.13 67.47 68.21 68.20 68.65 69.61 69.56 68.91 68.08 68.00 68.14 67.30 65.55 64.10 63.04 63.36 62.56
42.10 39.15 38.30 37.58 33.87 27.05 33.12 32.37 32.81 35.64 38.83 41.67 44.12 46.19 47.82 49.38 51.84 52.42 53.60 53.70 54.13 55.55 58.55 58.71 62.73 64.33 64.30 64.72 66.33 64.80 64.35 65.22 65.77 67.91 67.26 67.03 67.05 67.89 69.09 69.62 69.04 68.46 67.94 67.31 65.52 65.03 64.38 64.27 63.59
38.16 32.23 27.36 22.29 22.37 24.30 35.15 32.64 34.22 38.74 41.94 43.41 43.83 45.48 47.30 48.08 50.25 51.88 52.94 53.57 54.71 53.83 54.80 56.60 59.83 62.14 65.10 64.90 66.43 65.69 64.91 65.46 66.47 68.09 67.08 66.38 65.81 65.45 66.61 67.98 67.88 68.27 68.15 67.37 65.87 65.54 64.57 63.70 63.18
34.24 33.73 25.18 20.20 23.11 25.88 33.46 28.98 33.53 41.50 43.31 45.53 46.74 46.54 47.44 48.28 49.23 50.56 52.23 54.15 55.21 55.88 54.99 54.47 55.09 59.65 63.64 65.11 67.74 67.30 66.47 69.01 68.45 68.37 67.42 66.72 66.02 65.79 66.88 67.84 67.93 68.28 68.37 66.70 67.04 65.90 64.23 63.73 63.09
34.09 31.37 38.13 29.76 31.17 26.51 29.27 34.23 39.16 42.28 42.23 43.05 43.18 45.05 44.47 45.27 49.91 51.05 52.49 53.41 54.93 55.47 56.13 56.40 57.04 59.36 65.76 65.66 66.56 67.30 65.90 68.69 67.93 67.04 66.88 66.58 65.91 66.79 67.71 68.22 67.06 67.73 67.72 67.02 66.10 65.26 63.48 63.25 62.32
36.15 38.39 27.50 31.16 22.73 20.83 27.19 29.18 30.95 37.36 38.15 40.69 41.02 42.56 44.94 47.70 51.45 51.73 51.68 52.71 53.36 53.69 56.47 57.74 60.22 63.73 64.55 64.94 65.64 67.37 68.27 69.52 67.95 67.62 66.57 66.39 65.89 67.15 67.44 67.51 67.91 66.86 66.63 65.74 64.32 63.21 62.70 62.38 61.86
35.37 33.02 33.89 32.44 29.55 23.70 21.03 25.84 41.35 38.18 38.92 39.15 40.91 43.44 44.96 47.62 50.14 52.90 53.13 58.51 59.60 59.18 59.43 58.86 62.14 64.61 65.86 67.23 67.98 68.53 69.31 69.73 68.62 68.00 67.59 67.53 67.53 67.85 67.98 67.61 66.41 65.81 66.10 65.55 62.76 62.12 62.89 61.85 60.96
39.32 36.35 33.49 28.24 27.25 29.79 28.12 27.67 41.49 39.83 40.98 41.61 41.97 44.18 45.29 47.78 48.93 51.35 53.62 61.10 63.07 63.09 63.93 63.96 65.95 67.00 67.73 68.48 68.33 68.55 69.05 69.91 69.23 68.53 68.85 68.73 67.44 67.90 67.17 66.69 65.94 65.85 64.39 64.30 63.11 62.47 63.02 61.25 60.56

GFSSGP_sfc_wetblb_048.txt.gz
Wetbulb
61.06 59.99 55.74 54.08 42.94 39.86 36.85 41.59 46.03 46.82 47.15 49.05 51.61 52.58 56.48 58.92 57.45 53.40 65.24 68.32 68.93 70.24 72.48 74.85 76.60 77.25 77.45 77.20 76.89 76.61 76.33 76.28 76.28 76.12 75.61 75.04 74.84 73.88 73.28 73.28 72.78 71.63 70.31 69.36 68.59 68.04 67.44 66.89 66.48
60.18 60.91 54.12 49.31 38.88 34.04 37.51 43.89 45.71 47.86 50.23 52.08 52.92 56.10 57.70 58.00 62.44 65.28 66.61 68.92 68.57 70.86 71.84 72.66 76.33 76.88 77.28 76.94 76.71 76.38 76.33 76.35 76.27 76.04 75.61 75.02 74.69 73.93 72.98 72.20 71.47 70.45 69.72 68.87 68.12 67.13 67.20 67.43 67.39
63.50 61.76 52.56 44.02 36.94 35.55 38.30 44.55 46.57 49.70 52.16 52.44 52.38 57.77 59.98 59.53 65.53 66.36 67.96 68.27 69.11 69.91 71.10 71.22 75.88 76.25 76.95 76.94 76.58 76.27 76.25 76.32 76.19 76.20 75.76 75.11 74.69 74.36 73.48 72.38 71.44 70.11 69.39 68.64 67.69 67.73 68.09 68.26 68.17
57.57 55.63 53.53 39.71 37.28 41.44 43.95 46.97 49.36 50.00 51.36 52.88 55.91 56.36 61.78 64.43 65.73 68.53 68.35 68.10 67.41 69.31 69.87 72.85 75.42 75.97 76.45 76.64 76.38 76.17 76.14 76.22 76.27 76.04 75.74 75.05 74.59 74.26 73.37 72.16 71.73 71.02 69.55 68.72 68.23 68.74 68.87 68.70 68.56
57.97 51.14 41.74 39.29 40.27 43.05 46.92 48.05 48.20 47.90 49.05 50.88 55.39 56.10 59.24 64.71 70.00 68.82 67.96 67.72 66.77 67.88 68.80 72.56 75.05 75.65 76.20 76.59 76.46 76.17 76.04 75.88 76.01 75.84 75.57 75.20 74.84 73.95 72.90 72.14 71.28 70.81 70.22 69.23 69.25 70.20 70.33 70.27 69.33
54.06 48.71 39.06 38.33 44.07 47.73 49.26 49.70 48.25 47.90 49.33 52.21 54.19 57.50 59.28 67.23 68.82 67.95 67.67 66.37 66.64 67.21 68.86 71.62 74.70 75.32 75.57 75.96 75.90 75.86 75.78 75.78 75.63 75.58 75.53 75.18 74.68 73.95 72.90 72.39 71.72 71.52 71.18 70.90 70.97 70.88 70.68 70.46 70.96
50.27 45.93 39.38 41.19 44.21 46.45 49.42 52.95 52.47 49.65 50.39 50.65 53.05 54.04 59.23 64.98 68.81 69.21 67.23 66.65 65.95 67.98 69.53 70.56 71.67 73.85 75.57 75.35 75.26 75.32 75.19 75.19 75.27 75.11 74.86 74.76 74.35 73.57 72.82 72.21 71.94 71.50 71.49 71.36 71.36 71.32 70.91 70.88 70.71
49.91 49.86 45.47 45.86 46.05 47.40 53.45 53.33 51.90 52.52 52.57 54.50 56.25 53.56 56.39 62.38 69.19 69.66 67.84 65.96 66.71 69.50 69.02 70.33 71.03 71.51 71.63 72.59 74.92 74.85 74.87 74.58 74.50 74.50 74.40 74.19 73.93 73.37 72.69 71.60 71.49 71.45 71.35 71.33 71.38 71.47 71.13 71.15 71.24
50.36 42.10 43.70 47.53 48.46 50.04 53.82 52.14 55.32 56.06 53.58 55.18 54.91 55.96 62.41 64.55 66.80 66.34 66.70 66.46 68.27 69.16 68.41 69.58 70.82 70.98 70.78 70.70 72.20 73.77 74.46 74.33 74.12 73.91 73.82 72.56 70.63 70.26 69.93 70.53 70.46 71.20 71.28 71.30 71.52 71.57 71.32 71.33 71.05
44.56 39.15 43.37 49.50 52.52 51.54 52.99 52.84 54.02 54.31 53.69 54.30 55.33 56.97 60.19 64.76 65.67 65.34 65.89 65.91 67.60 67.82 68.51 68.16 69.34 69.87 70.22 71.22 70.48 70.14 70.58 70.70 70.56 70.49 70.28 69.42 67.35 67.14 68.48 69.42 70.68 71.00 71.10 71.25 71.40 71.59 71.43 71.03 68.14
43.77 41.60 47.09 49.04 51.04 51.97 51.23 51.60 54.14 51.95 50.94 53.57 53.57 54.39 56.65 58.53 59.78 63.24 65.50 66.65 68.02 68.74 68.94 69.01 67.56 68.52 68.41 68.44 69.64 69.97 69.46 69.51 69.40 68.65 68.25 67.32 66.88 66.54 68.06 65.51 67.64 66.43 69.81 67.14 69.26 69.26 68.99 67.57 67.23
40.49 44.80 45.83 48.33 50.62 50.42 49.27 51.47 50.47 51.93 52.44 55.47 56.41 56.54 56.17 55.67 56.82 59.52 60.68 62.38 66.92 69.09 69.43 69.02 67.82 66.37 66.19 66.10 68.19 68.57 68.44 68.36 68.41 68.02 67.21 66.96 65.70 64.19 64.39 64.26 64.34 64.36 65.18 64.92 65.26 66.48 67.30 66.87 66.94
40.14 43.34 45.17 46.44 47.16 50.01 51.28 50.06 50.44 51.19 54.50 56.06 56.52 56.78 56.45 56.05 58.27 62.87 63.62 63.50 65.50 69.31 70.70 70.17 68.90 67.42 66.43 65.42 66.91 67.78 66.96 67.21 67.14 67.28 67.10 66.79 65.76 64.38 63.53 63.69 62.58 63.11 64.03 64.90 64.28 65.18 65.93 66.29 66.07
40.98 42.03 42.38 43.64 43.95 45.40 45.58 47.01 49.24 51.49 54.59 54.31 55.21 55.50 56.25 56.71 57.70 61.33 62.38 62.91 64.55 66.86 68.58 69.62 68.80 69.87 69.19 66.50 67.21 67.62 67.20 66.55 65.46 65.94 66.37 66.60 65.81 64.14 63.42 62.09 62.48 62.35 63.97 64.79 64.48 63.84 64.30 64.69 64.83
42.42 38.32 40.91 42.01 42.94 43.73 46.63 44.06 45.00 49.66 51.48 51.75 53.57 54.94 55.74 56.90 56.86 60.97 62.63 63.48 63.02 64.65 65.08 67.02 67.73 67.61 68.47 68.52 68.11 67.69 67.61 67.34 66.64 66.41 66.78 66.67 65.84 65.08 63.19 62.52 62.01 62.94 63.27 63.80 63.91 62.37 62.64 63.06 64.46
38.08 36.65 31.20 37.68 41.92 44.35 44.55 39.53 46.43 49.18 49.01 49.61 51.20 53.51 54.95 55.92 57.11 57.07 61.73 62.38 63.69 63.77 64.05 63.89 67.10 65.95 69.48 69.66 69.60 69.02 68.66 68.68 68.32 67.95 67.85 67.53 66.39 65.70 63.93 63.21 62.25 63.19 63.32 63.31 63.61 62.48 61.42 63.13 63.75
33.25 28.78 31.22 35.24 39.99 40.83 41.37 39.10 45.11 47.39 47.69 47.91 49.16 50.27 53.04 53.89 55.43 56.06 59.16 61.81 61.95 61.47 62.82 63.31 64.93 67.81 70.42 70.99 70.88 70.78 70.66 69.77 69.63 69.29 68.53 68.10 67.48 66.27 65.53 64.33 64.08 63.20 63.73 63.32 63.30 62.81 61.91 60.89 61.95
30.94 30.82 34.08 34.00 38.72 39.69 38.04 38.47 42.10 44.33 44.67 44.60 46.22 48.39 50.81 52.99 54.30 56.40 56.88 58.29 61.27 62.70 61.50 63.16 62.76 65.43 70.53 70.99 70.99 70.39 69.14 70.32 68.91 69.57 69.38 68.94 68.45 67.53 65.79 65.82 64.62 63.78 63.69 63.48 62.76 62.70 62.86 61.16 62.49
37.87 36.12 34.22 37.31 41.30 39.26 38.08 38.82 41.37 42.51 42.95 42.71 43.81 45.99 47.46 50.07 53.52 55.33 57.17 56.67 57.83 59.79 60.65 59.44 62.80 66.09 69.75 69.42 68.97 69.12 68.94 68.98 68.06 68.89 69.07 69.51 70.08 68.47 66.01 66.70 65.10 64.96 63.85 63.99 63.63 62.19 62.05 61.29 62.41
36.24 33.70 33.05 37.26 40.61 39.27 37.97 38.30 41.59 41.97 41.75 42.42 43.40 44.69 46.11 48.40 51.08 53.12 54.97 56.47 55.53 57.23 60.08 61.40 62.12 67.02 70.14 70.22 70.23 69.39 69.55 66.71 69.02 69.26 68.87 68.62 70.08 69.41 68.04 66.66 66.43 65.97 65.17 63.20 63.07 62.41 60.73 61.01 61.30
34.87 32.89 34.87 35.06 39.63 39.74 36.73 35.36 37.92 41.87 42.36 43.69 43.87 44.66 45.90 47.12 49.34 51.49 53.92 54.45 55.00 54.88 57.28 62.23 63.07 66.59 69.79 70.16 69.08 63.69 64.05 63.35 63.27 63.47 64.31 66.13 69.22 70.00 68.77 67.35 67.53 66.61 66.43 64.26 63.35 62.71 61.67 59.80 59.92
32.49 39.86 38.81 37.25 34.16 27.52 36.64 26.55 35.38 38.65 40.01 41.44 42.45 42.12 43.67 45.76 47.64 49.13 51.61 52.17 54.40 57.30 59.65 61.82 63.67 63.91 67.75 67.10 66.11 64.95 62.93 61.11 60.94 61.64 64.91 65.56 69.08 69.82 69.01 68.27 67.72 67.43 65.83 65.04 63.80 63.68 61.55 61.50 59.85
35.59 40.84 37.87 37.51 33.66 30.05 33.04 27.07 33.57 36.80 37.04 39.70 41.91 43.33 43.96 44.81 44.98 46.76 49.60 52.52 53.87 56.51 60.98 61.85 61.92 61.93 63.16 64.25 64.67 64.60 60.18 60.49 60.55 63.52 63.89 65.36 67.39 69.21 69.48 68.24 66.79 66.90 66.09 65.07 64.84 64.21 63.33 63.28 62.21
41.94 37.17 35.57 33.98 30.89 23.79 31.10 29.64 31.00 34.64 36.77 40.20 42.99 44.10 45.44 46.62 47.25 47.53 49.25 52.01 52.47 53.78 58.36 61.14 61.90 62.48 62.45 62.35 61.85 60.92 60.44 60.78 62.06 63.71 64.50 65.27 66.30 67.32 68.58 68.32 67.57 67.50 67.64 65.58 65.06 65.18 63.85 63.24 63.78
36.16 28.93 21.82 21.39 20.62 21.68 32.68 29.22 32.09 37.48 39.98 40.75 42.05 43.34 44.88 46.14 46.21 47.90 49.07 48.74 50.51 50.97 53.64 57.84 61.71 62.38 63.04 62.95 62.76 63.13 62.47 62.26 62.44 64.85 65.45 64.89 64.90 65.26 67.28 67.42 67.37 68.26 67.13 66.41 66.21 65.42 64.40 62.88 62.37
31.76 29.84 21.49 17.31 20.53 24.43 33.24 25.87 30.92 40.34 43.04 43.70 44.22 43.49 44.85 44.94 46.48 48.15 49.68 51.71 49.69 51.52 51.88 54.71 56.74 61.04 61.76 61.99 61.81 63.71 63.81 64.01 64.73 66.72 67.06 67.23 67.08 66.83 66.85 66.61 66.45 68.16 68.07 67.57 65.89 64.65 64.42 64.09 63.49
32.41 28.33 34.00 24.44 29.83 27.27 27.47 31.48 36.68 41.06 40.81 41.88 42.01 43.40 43.05 44.18 45.52 47.92 50.13 51.65 54.49 51.92 53.17 53.35 54.85 57.71 59.10 61.99 62.20 62.51 64.03 64.90 66.42 66.69 67.08 66.42 65.59 66.36 66.27 66.45 65.87 68.03 67.70 66.79 64.67 64.64 64.52 64.02 63.03
35.51 36.19 25.09 26.15 21.04 20.73 25.59 27.76 27.96 36.14 37.48 39.75 40.31 40.74 42.44 44.21 45.29 47.57 49.33 50.84 53.33 56.56 53.72 53.31 53.61 54.94 58.03 61.13 63.38 65.14 64.49 67.26 66.83 66.87 65.74 65.77 65.30 66.29 66.07 65.46 65.57 66.23 66.77 65.24 64.23 63.87 63.98 62.63 60.75
31.46 29.89 32.59 31.25 30.36 24.00 21.82 23.86 37.30 37.43 38.37 37.58 39.44 41.14 41.98 43.85 45.25 47.24 48.58 50.38 52.63 54.40 58.16 53.71 53.15 54.29 60.36 62.45 63.73 65.27 66.32 66.79 66.69 66.31 66.09 65.77 65.39 65.86 66.00 66.45 66.11 66.66 66.05 65.61 64.29 62.26 62.09 61.17 60.12
35.79 32.92 32.71 26.06 27.41 30.65 29.04 26.26 38.97 38.89 39.18 39.41 39.57 42.16 43.87 44.97 45.93 47.39 47.91 48.89 52.37 53.30 56.35 59.04 56.24 59.75 62.72 64.17 65.09 65.85 67.62 66.65 66.00 65.79 66.07 66.11 65.91 67.03 67.06 67.19 66.85 66.42 65.45 64.46 61.96 61.13 62.18 60.48 59.47

GFSSGP_sfc_wetblb_051.txt.gz
Wetbulb
63.77 57.92 54.50 52.39 42.28 38.64 34.42 39.54 42.82 44.37 46.48 47.57 49.04 48.01 49.05 55.47 56.66 52.52 63.23 66.05 68.34 68.30 73.75 76.17 77.06 77.15 77.05 76.92 76.67 76.06 75.93 75.91 75.86 75.59 75.37 75.02 74.60 74.15 73.88 73.65 73.16 72.27 71.27 70.51 69.43 68.54 68.02 67.02 66.42
63.87 59.78 54.14 46.82 37.76 32.95 35.00 41.20 42.02 45.61 48.47 50.40 50.44 50.01 54.75 56.32 61.82 63.91 63.83 66.98 67.58 69.13 73.29 74.92 76.99 77.02 77.15 76.67 76.29 75.93 76.04 76.09 75.81 75.36 75.24 75.09 74.69 73.98 73.13 72.96 72.17 71.21 70.24 69.43 68.78 68.14 67.40 67.16 66.97
64.28 60.40 50.48 43.16 35.75 36.09 37.01 42.58 43.84 47.47 49.73 49.35 49.08 52.15 55.11 59.01 64.39 64.99 65.71 67.45 66.53 69.23 72.36 73.76 76.84 76.92 76.90 76.65 76.06 75.78 75.78 75.88 75.68 75.64 75.26 75.14 74.69 74.02 73.40 72.76 72.27 70.74 69.95 69.35 68.40 67.69 67.72 67.79 67.76
57.14 54.84 49.96 41.31 38.66 41.40 42.79 44.19 45.39 47.29 50.15 49.53 49.48 50.63 60.17 63.43 65.42 66.50 67.35 66.65 67.08 68.66 70.94 74.65 76.34 76.54 76.59 76.67 75.99 75.75 75.63 75.73 75.71 75.71 75.51 75.21 74.61 74.11 73.37 72.91 72.18 71.49 70.03 69.21 68.38 68.98 68.86 68.64 68.15
57.56 49.66 41.91 37.50 40.28 43.21 45.64 46.98 46.53 46.90 47.17 49.03 52.32 51.42 58.48 63.70 68.12 66.94 66.05 66.48 65.53 67.82 68.79 73.53 75.67 76.14 76.62 76.65 76.29 75.86 75.66 75.65 75.60 75.63 75.53 75.18 74.63 74.18 73.49 72.76 71.81 71.57 70.87 69.52 69.08 69.53 70.11 69.89 68.91
53.30 48.15 39.20 37.67 43.51 46.06 47.81 48.72 47.09 47.68 50.57 50.98 49.95 51.61 58.07 66.80 66.46 65.98 66.00 64.96 66.77 66.91 68.03 71.77 75.30 75.72 75.81 76.09 75.88 75.57 75.27 75.42 75.44 75.25 75.27 75.14 74.64 74.10 73.27 72.49 71.84 71.83 71.43 70.94 70.54 70.70 70.46 70.27 70.02
51.24 44.63 40.31 41.89 43.80 45.28 48.64 51.58 51.24 50.28 50.13 51.01 51.21 49.25 58.05 65.62 66.75 65.86 63.72 63.48 65.31 66.26 68.12 70.17 72.55 74.61 75.86 75.73 75.44 75.33 75.21 75.03 74.98 74.80 74.79 74.84 74.57 73.96 73.16 72.46 71.99 71.72 71.52 71.04 70.92 71.13 70.93 70.54 69.88
49.20 48.67 44.29 43.98 44.50 44.70 52.24 53.02 52.92 52.04 51.49 55.65 55.29 49.53 51.64 62.22 67.06 65.54 63.90 62.95 62.61 64.41 67.03 68.32 70.72 72.78 73.36 74.04 75.64 75.37 75.33 74.96 74.61 74.65 74.82 74.70 74.44 73.90 73.30 71.86 71.61 71.82 71.67 71.53 71.30 71.48 71.40 70.86 70.75
49.98 42.06 42.31 45.72 47.46 47.98 53.07 50.93 53.57 55.14 53.37 54.57 55.71 54.72 57.72 67.13 67.25 64.94 63.54 66.09 66.57 66.16 65.83 67.50 69.16 70.22 70.76 71.48 73.71 75.03 75.35 75.08 74.87 74.64 74.69 73.70 72.32 71.61 70.98 71.17 71.07 71.70 71.50 71.35 71.57 71.74 71.41 71.04 70.32
42.75 39.35 43.14 49.35 51.19 49.78 51.07 50.31 51.71 51.89 51.54 51.90 54.36 56.64 57.95 66.22 66.00 63.91 62.80 63.51 64.58 64.98 65.74 67.58 68.34 69.05 69.05 70.56 69.92 70.99 72.45 73.01 72.85 72.63 72.47 71.49 68.96 68.35 69.33 70.28 70.83 71.52 71.20 71.38 71.50 71.59 71.53 70.34 67.00
41.05 40.66 46.49 48.45 49.30 50.67 49.80 49.75 51.56 49.60 48.35 51.05 51.11 53.82 55.13 58.99 61.76 62.86 62.37 62.15 63.25 65.08 66.11 67.25 68.00 67.99 68.18 67.40 68.01 68.14 68.26 69.34 69.48 69.57 69.86 69.14 67.67 67.24 68.60 65.66 67.45 66.39 70.05 66.11 68.52 68.54 68.39 66.53 66.25
38.40 43.38 44.42 45.86 48.16 48.23 47.26 49.72 48.62 49.67 49.72 52.91 54.26 55.10 55.15 55.08 54.98 58.72 59.03 61.62 64.52 65.54 66.12 66.12 66.96 67.20 66.75 65.46 67.90 67.26 67.15 67.63 67.42 67.58 67.13 66.63 65.07 64.37 64.62 64.76 64.06 64.45 64.29 64.39 64.03 65.30 66.03 65.82 66.03
38.40 41.00 43.48 44.52 44.02 44.66 47.90 47.63 48.57 49.26 52.12 53.58 54.46 54.91 54.73 54.68 54.85 60.00 61.08 62.68 65.17 66.82 67.10 66.97 66.17 65.56 65.96 62.95 66.09 66.32 66.66 66.78 66.08 66.09 66.46 66.07 64.53 63.68 63.14 63.56 62.52 62.82 62.66 63.14 63.02 63.54 64.51 64.92 65.46
39.48 40.08 41.53 42.25 42.65 43.26 43.86 45.12 46.44 48.06 50.79 50.73 51.27 52.28 54.19 54.85 56.04 59.79 61.39 62.16 64.37 68.35 68.56 68.49 67.04 66.41 65.54 64.44 64.48 65.90 66.05 65.45 64.80 65.33 66.13 66.06 64.74 63.73 62.71 62.11 61.90 61.13 62.32 62.94 63.12 63.07 63.39 63.25 64.05
40.70 36.34 38.87 40.64 42.18 43.03 45.08 41.81 43.26 48.32 49.89 49.44 50.17 50.94 52.79 55.13 57.82 60.06 61.29 62.22 64.15 67.96 69.77 68.93 68.02 67.49 65.47 64.85 65.15 66.24 66.44 65.97 64.93 64.69 65.51 65.91 65.24 63.83 62.84 61.33 61.50 61.56 61.95 62.31 62.83 61.87 61.56 61.69 62.89
35.82 34.38 29.51 37.09 40.39 42.63 42.53 37.47 44.33 47.21 46.87 47.52 48.89 49.95 51.38 53.50 56.49 59.50 60.70 61.73 62.71 64.01 67.93 69.31 70.06 68.86 67.55 66.37 65.81 66.69 67.28 66.89 66.28 65.57 65.27 65.61 65.40 64.74 62.99 61.99 60.97 61.08 61.38 62.38 62.62 61.15 60.07 60.99 61.60
32.67 27.58 29.02 34.47 38.59 39.03 39.96 36.29 42.35 44.24 44.36 44.42 45.27 46.51 48.40 50.09 52.93 56.00 59.35 60.86 61.52 62.13 62.30 65.02 68.28 68.14 67.90 67.99 67.77 67.76 67.18 67.08 67.27 67.15 66.73 66.70 66.04 65.50 64.24 62.95 62.23 61.16 61.59 61.78 62.20 60.92 60.88 59.69 60.83
29.63 29.22 31.95 32.72 37.74 37.69 36.80 37.80 41.38 43.39 43.21 43.09 43.96 44.80 45.82 47.17 48.69 53.01 56.20 59.42 61.12 61.60 61.44 61.10 60.98 63.25 64.76 67.51 67.60 67.66 68.54 68.21 68.34 68.17 67.81 67.52 66.83 66.42 65.01 64.37 62.53 61.95 61.72 61.39 61.48 61.17 60.97 59.99 60.84
35.21 33.52 31.75 35.08 38.77 36.41 35.49 37.15 39.52 41.53 41.62 41.35 42.18 43.63 44.37 46.05 49.11 51.31 54.29 56.60 57.98 60.16 60.60 61.05 60.94 61.51 62.61 65.82 66.28 66.74 67.31 68.58 68.95 68.73 68.78 68.13 67.64 67.08 64.98 64.86 63.36 62.51 62.21 62.10 62.12 61.14 60.84 60.01 61.02
34.25 31.25 31.26 35.65 40.11 38.57 37.14 36.90 40.14 39.71 40.29 41.14 41.84 42.52 43.57 44.58 47.13 49.31 51.86 53.45 54.97 57.05 59.27 60.86 60.74 61.88 61.47 66.58 67.50 67.04 67.66 68.18 69.12 69.44 68.34 68.77 68.52 67.48 65.82 65.36 64.47 63.78 63.06 61.78 62.31 61.43 59.69 60.76 61.32
33.55 32.45 33.24 33.53 37.82 38.18 35.85 34.68 36.33 39.48 40.42 41.99 42.24 42.63 42.79 43.43 44.46 46.89 48.84 49.86 53.07 53.58 56.20 58.93 60.21 61.22 62.41 66.77 66.84 63.25 64.12 63.37 64.71 64.69 66.17 67.44 67.90 68.54 67.48 65.91 65.66 64.62 64.42 62.60 62.60 62.41 61.22 59.22 59.89
30.43 38.22 37.40 35.72 32.52 25.99 35.82 25.22 34.39 37.89 38.49 39.39 40.49 40.54 41.21 42.35 43.57 44.81 45.73 46.80 48.03 51.03 53.17 56.59 59.09 59.43 61.78 63.78 66.89 66.98 66.80 66.23 65.31 66.65 66.33 64.78 67.04 67.79 68.23 67.16 66.19 65.77 65.33 63.72 63.21 63.16 62.51 62.63 60.64
33.94 39.19 35.98 35.36 31.47 28.17 30.29 25.80 32.66 35.65 35.49 38.23 40.59 41.52 42.87 43.75 44.86 45.59 46.90 48.22 48.91 50.19 51.30 54.26 58.03 60.14 61.24 64.67 67.87 67.35 66.59 63.28 60.02 60.17 62.73 62.89 64.52 67.00 68.46 67.87 66.51 66.13 65.66 64.99 63.86 63.06 63.19 63.43 62.46
40.05 35.33 32.86 31.76 28.70 21.67 28.74 27.80 28.91 30.74 33.84 37.11 41.34 43.05 44.50 44.49 45.61 46.82 48.31 49.88 50.33 51.51 48.93 52.05 57.95 60.16 61.27 64.78 66.15 66.52 66.02 61.50 59.74 60.60 60.74 61.52 63.40 65.30 67.20 67.34 66.55 66.69 65.81 65.06 64.82 65.62 64.34 63.53 63.48
34.58 27.34 20.07 19.26 19.99 21.39 30.59 27.57 29.68 36.68 39.78 40.65 41.00 42.05 43.05 43.63 44.12 45.21 46.23 48.15 49.90 50.69 52.65 49.18 54.64 58.85 60.09 61.84 64.39 64.06 64.05 62.74 61.71 61.08 61.90 62.05 63.35 64.25 66.54 66.64 66.03 66.48 66.60 66.15 66.26 65.27 64.31 63.88 63.31
30.28 28.59 19.26 14.02 18.04 21.79 30.57 24.18 29.27 39.82 42.06 42.86 43.44 42.73 43.46 43.23 42.52 43.99 45.83 47.48 49.05 51.05 53.48 50.61 50.37 56.33 59.12 61.14 62.31 63.36 62.80 62.59 61.43 61.10 62.92 63.76 64.90 65.17 66.79 67.27 66.98 66.84 66.96 66.64 65.42 65.51 64.53 63.92 63.16
30.73 27.33 31.19 21.55 25.74 21.81 25.39 30.24 35.09 39.44 40.20 41.04 40.87 41.89 41.13 41.78 42.97 43.74 45.44 46.90 48.51 49.37 51.24 53.26 53.05 51.25 56.89 59.81 61.56 60.73 60.64 60.10 61.01 62.24 64.16 64.83 64.79 65.96 66.91 67.00 66.39 66.98 66.93 65.88 65.48 64.92 64.10 63.76 63.72
33.57 34.96 23.91 24.44 19.53 18.71 23.80 26.00 27.89 33.10 35.91 39.52 39.87 39.67 40.38 41.81 43.75 45.46 46.12 47.01 48.73 48.83 50.66 53.37 55.09 53.53 52.91 58.05 59.83 59.71 60.77 61.40 62.38 64.28 64.62 64.68 64.33 65.99 65.65 65.20 65.38 66.12 67.11 66.29 65.30 64.14 64.46 62.90 61.47
29.76 28.08 29.92 29.23 27.67 20.79 20.25 24.25 33.94 35.13 37.43 37.89 39.49 40.49 39.69 41.69 43.97 45.15 46.18 47.58 47.77 48.29 50.15 53.00 54.24 55.20 51.08 54.28 57.18 59.23 61.17 63.20 64.29 64.80 64.75 64.81 65.42 65.58 65.63 65.41 64.80 65.61 64.91 65.42 64.18 62.46 62.94 62.82 61.06
34.60 31.52 32.33 25.79 23.63 27.40 26.47 25.99 39.10 38.98 37.82 38.25 39.45 41.13 41.45 43.32 44.32 45.15 45.92 47.44 47.90 47.77 48.89 51.24 54.20 55.53 51.84 53.43 57.41 61.04 63.10 64.75 64.77 64.70 64.96 64.86 65.20 65.63 65.66 65.93 65.77 66.09 65.59 65.09 64.13 63.14 62.96 60.37 58.98

GFSSGP_sfc_wetblb_054.txt.gz
Wetbulb
65.85 59.12 53.59 50.34 41.50 37.84 33.31 38.09 40.97 42.75 44.25 46.24 47.96 47.49 47.91 51.17 54.53 50.96 62.72 66.28 66.48 67.80 73.92 75.85 76.94 77.17 76.82 76.42 76.34 76.06 75.61 75.56 75.34 75.26 75.14 75.11 75.06 74.89 74.64 74.39 74.12 73.23 72.14 71.21 70.41 69.28 68.23 67.38 66.57
64.99 59.75 53.77 45.27 36.99 32.12 33.73 39.50 41.16 43.20 47.05 49.21 48.77 47.69 47.16 48.22 53.29 60.60 62.33 65.42 66.64 68.57 73.61 75.08 76.94 76.89 76.87 76.27 76.11 75.80 75.63 75.63 75.39 74.96 74.91 74.89 74.64 74.47 73.90 73.87 73.09 72.07 71.39 70.49 69.60 68.73 67.76 67.32 67.18
62.68 60.18 49.87 43.64 35.15 33.32 35.30 40.59 43.15 45.90 48.04 47.26 47.31 50.47 49.59 55.74 62.60 63.54 64.63 65.97 65.88 69.13 72.99 74.55 76.84 76.64 76.65 76.29 75.98 75.65 75.60 75.40 75.38 75.16 74.94 74.89 74.59 74.14 73.82 73.45 73.05 71.64 70.52 69.71 69.18 68.50 68.16 67.95 67.88
56.79 55.77 48.78 41.84 39.50 40.91 41.97 42.71 44.40 45.40 48.31 48.11 48.21 49.08 53.52 62.63 64.59 65.61 65.96 66.12 65.93 69.38 72.68 74.82 76.31 76.31 76.37 76.24 75.91 75.60 75.72 75.47 75.23 75.28 75.03 74.68 74.44 73.94 73.49 73.27 72.83 72.03 70.47 69.90 69.19 69.52 69.12 68.70 68.48
55.90 50.92 42.34 38.77 40.89 43.38 44.84 45.34 44.83 45.59 46.04 48.89 50.53 49.43 50.86 63.72 66.74 65.85 65.47 65.28 65.40 69.24 71.37 73.91 76.18 76.24 76.27 76.37 76.04 75.65 75.55 75.27 75.27 75.30 75.16 74.95 74.40 73.86 73.39 73.17 72.63 72.15 71.79 70.38 70.16 70.08 70.43 70.19 69.09
51.35 48.44 39.39 38.15 42.99 45.05 46.95 46.71 46.23 45.42 48.45 51.27 50.84 50.61 52.99 66.32 65.29 64.30 64.73 63.28 66.15 68.40 69.33 73.69 76.04 75.96 75.86 75.79 75.71 75.47 75.35 75.29 75.22 75.12 75.14 74.75 74.44 73.90 73.34 73.02 72.48 72.25 71.90 71.27 70.76 70.62 70.50 70.51 70.16
49.83 45.08 40.59 42.10 43.33 44.98 48.34 51.23 49.73 48.40 49.36 50.30 52.11 48.06 51.66 58.34 64.44 63.47 62.24 63.54 64.91 66.81 68.80 71.84 73.99 75.22 76.04 75.58 75.37 75.06 74.96 74.88 74.78 74.68 74.65 74.48 74.36 73.89 73.33 72.85 72.28 72.11 71.98 71.45 71.10 71.12 70.76 70.53 69.94
49.87 47.41 42.06 42.69 43.73 43.66 51.43 52.51 51.80 49.91 50.64 54.67 54.96 49.81 50.61 62.71 63.99 63.06 62.99 62.07 62.06 64.04 67.31 69.20 71.58 73.26 73.72 74.33 75.51 75.20 75.05 74.69 74.56 74.54 74.48 74.59 74.30 73.93 73.39 72.10 71.78 71.96 71.91 71.57 71.37 71.54 71.34 70.78 70.48
49.71 42.90 40.50 44.75 46.24 46.74 51.94 50.23 53.11 53.68 51.55 52.28 54.40 53.59 55.25 65.92 64.91 62.63 63.09 64.15 63.19 64.34 64.94 66.91 70.04 71.10 72.18 72.68 74.35 75.24 75.39 75.17 74.81 74.76 74.57 73.63 73.10 72.84 72.27 71.73 71.80 71.86 71.94 71.57 71.52 71.66 71.50 71.16 70.07
44.09 39.14 42.74 48.72 49.58 47.93 49.82 50.01 50.46 49.79 49.21 49.65 51.81 54.01 56.09 64.78 63.81 61.95 61.18 61.04 62.55 63.03 64.75 66.18 67.64 68.83 69.87 72.29 72.69 73.18 73.14 73.77 73.31 73.22 73.32 72.86 72.04 70.89 70.75 71.45 71.31 71.88 71.61 71.56 71.61 71.67 71.64 70.36 68.10
39.36 38.94 45.20 47.17 47.95 49.05 47.80 47.76 49.52 48.18 47.32 49.05 48.67 51.20 54.05 54.43 60.05 62.98 62.54 62.82 61.88 63.37 65.61 67.03 67.21 67.86 69.36 69.37 69.78 70.71 70.17 72.30 72.19 72.13 71.81 71.79 69.50 69.60 70.47 68.20 69.55 68.66 70.81 67.86 69.95 70.13 69.62 67.95 67.85
37.31 42.40 44.04 44.62 46.31 45.77 45.44 47.57 46.62 47.56 48.03 51.29 51.76 52.54 52.91 53.66 53.18 58.60 62.39 62.72 63.17 63.49 64.57 65.69 67.20 67.86 67.16 66.38 67.88 68.49 69.08 68.10 68.42 68.40 68.56 67.88 66.27 66.10 66.46 66.22 66.04 66.13 66.74 66.36 65.78 66.74 67.72 67.41 66.94
35.89 38.72 42.14 43.51 43.27 43.20 45.14 44.43 45.27 46.33 49.68 51.88 51.83 52.38 52.59 52.64 53.22 54.88 58.77 61.22 63.68 63.44 64.83 65.41 66.18 67.02 67.18 65.18 67.12 67.30 67.30 67.64 67.30 66.87 67.09 67.05 65.69 64.52 64.53 64.82 64.29 64.70 64.74 64.70 64.70 64.82 65.73 66.34 66.54
38.23 38.45 39.97 41.55 42.24 42.74 42.76 43.99 44.81 46.82 49.31 49.33 49.47 50.22 51.01 52.22 53.49 54.10 60.21 60.75 62.39 65.90 65.68 66.02 65.58 66.77 66.93 65.49 66.38 66.67 66.98 66.56 66.56 66.58 66.91 66.87 65.67 64.25 63.51 63.07 63.17 62.97 63.70 63.77 63.99 63.85 64.31 64.75 65.69
39.10 34.93 37.44 39.09 39.17 39.98 42.80 40.30 41.93 46.78 48.53 47.85 48.35 48.59 49.37 51.26 53.20 54.14 57.99 60.54 62.51 65.14 67.37 66.54 66.08 66.01 65.09 65.05 64.40 65.84 66.19 66.25 65.86 65.92 66.60 66.42 65.67 64.51 63.74 62.87 62.32 62.86 62.91 63.28 63.74 63.55 63.64 63.53 64.03
33.78 32.67 28.33 34.64 38.11 40.57 40.71 35.16 42.77 44.64 44.77 45.53 46.45 47.07 47.88 48.12 49.47 51.98 55.70 58.65 61.36 64.47 67.92 68.12 68.19 66.16 64.87 64.56 64.20 64.71 65.15 65.39 65.36 65.19 65.87 66.44 66.11 65.16 63.74 62.58 62.06 62.51 62.21 62.77 62.98 62.72 62.14 62.27 62.60
31.49 26.62 28.07 33.32 37.11 37.13 36.75 35.12 41.99 44.68 43.80 43.54 44.85 45.82 46.77 46.56 48.13 49.49 51.96 54.31 59.74 62.38 66.27 67.75 68.16 66.79 65.76 64.78 64.19 63.62 65.51 65.89 66.01 65.56 64.86 65.27 65.61 65.63 64.44 63.13 62.61 61.86 61.82 62.09 62.71 62.26 62.41 61.40 61.86
27.06 27.59 30.69 30.65 35.95 37.55 35.29 35.97 40.21 42.44 42.85 42.53 43.10 44.17 45.47 46.53 47.62 49.68 51.26 52.56 54.74 59.35 61.56 64.41 68.28 68.12 67.46 66.77 66.16 65.81 66.23 66.28 66.63 66.47 66.40 66.10 65.68 65.61 64.56 63.64 62.88 62.08 61.69 61.80 62.15 62.19 62.23 61.94 62.53
33.22 31.39 30.00 33.57 37.45 36.31 35.38 36.22 38.86 40.87 40.74 40.66 41.67 42.19 43.77 45.76 48.51 50.10 51.21 52.62 53.33 54.95 58.95 60.26 61.23 63.60 63.57 64.36 65.01 65.09 65.40 66.04 66.40 67.07 67.46 67.14 66.90 66.30 65.11 64.87 63.35 62.65 62.06 62.16 62.19 62.51 62.04 61.37 62.48
33.06 30.11 30.33 34.71 38.16 36.37 34.94 35.24 38.74 39.70 39.76 40.67 41.35 41.98 42.36 43.68 45.62 48.19 48.83 50.52 51.46 51.75 53.11 57.19 59.65 60.58 61.84 65.02 66.30 66.45 66.45 66.37 66.97 67.97 68.10 67.99 67.66 67.06 66.21 65.38 64.23 63.32 62.96 62.36 62.34 62.56 61.46 62.24 62.79
31.83 30.86 31.29 32.01 35.99 36.21 34.15 31.45 33.79 38.04 39.99 41.29 41.93 42.24 42.50 41.96 42.70 44.43 47.11 48.14 48.38 49.38 50.92 52.94 55.59 59.41 60.25 60.86 65.18 64.63 64.96 65.00 65.91 66.55 67.63 68.35 68.23 67.80 67.24 66.05 65.80 64.42 63.88 62.69 62.65 62.76 62.14 61.43 61.95
28.73 36.90 36.00 34.12 30.48 23.79 34.29 22.47 30.25 33.87 35.75 38.71 39.97 39.68 40.28 42.28 44.68 45.53 46.91 47.16 48.57 50.46 49.91 51.12 52.93 55.39 58.20 59.91 61.69 64.91 65.10 65.06 66.53 67.51 67.35 67.03 68.56 68.47 67.89 66.78 66.44 65.24 64.89 63.78 63.34 63.90 63.25 62.87 61.17
32.54 37.69 34.39 33.53 28.75 26.69 28.56 23.86 27.88 34.27 32.84 34.67 37.55 39.53 41.99 43.77 44.37 44.99 46.11 47.23 49.01 50.30 49.31 49.98 50.21 52.84 56.24 58.28 60.87 62.75 64.42 65.49 66.48 62.98 65.08 64.91 66.94 68.08 68.31 67.90 66.34 66.02 65.49 65.43 64.02 63.74 63.36 63.67 63.34
38.04 33.64 30.79 28.73 26.68 20.35 26.20 25.67 23.92 29.63 32.39 36.32 39.86 41.78 43.27 43.47 44.31 44.85 46.04 47.07 47.50 49.05 49.70 50.20 49.46 51.68 56.29 58.05 60.23 62.35 64.10 64.72 61.28 61.24 62.89 63.26 64.05 65.29 67.03 67.75 67.08 66.76 66.33 65.42 64.66 64.63 64.03 63.91 64.36
32.48 26.41 19.19 18.38 18.43 19.37 28.66 25.34 28.69 34.54 38.04 38.46 39.68 41.26 42.45 42.89 42.71 43.09 43.47 44.65 46.21 46.99 48.84 50.91 51.73 50.25 53.43 58.46 60.41 63.78 64.67 65.07 62.90 63.08 63.21 61.68 62.59 64.04 65.44 66.76 66.42 66.54 66.67 66.22 66.02 65.34 65.23 64.54 63.84
28.17 27.72 18.26 13.34 17.24 18.66 28.36 22.76 27.37 36.59 39.88 41.52 42.41 42.12 42.64 42.54 41.65 41.84 43.39 44.41 45.67 47.43 48.56 49.99 50.92 50.81 51.58 57.13 59.78 62.50 65.07 65.75 64.98 64.12 63.34 62.83 63.22 64.19 66.74 67.00 67.00 67.16 67.30 67.08 66.83 66.45 65.86 64.66 64.49
29.30 25.28 28.80 19.44 22.02 20.86 23.88 27.96 34.47 38.05 37.91 40.49 40.18 41.51 40.95 41.39 42.14 42.88 44.05 44.32 45.33 47.35 48.04 49.16 50.19 51.19 53.08 52.66 57.79 60.56 62.87 62.41 62.92 62.08 63.03 62.65 64.04 65.31 66.58 67.25 67.05 67.34 67.72 67.43 66.76 66.24 65.34 64.81 64.00
32.73 34.04 22.72 23.00 16.86 17.62 22.11 24.01 26.40 32.38 34.80 37.34 37.87 38.71 39.72 41.24 42.30 44.21 45.07 45.61 47.12 47.85 48.27 49.50 49.59 51.43 53.75 54.76 54.29 59.56 61.08 62.43 62.09 60.98 62.24 63.45 64.56 66.33 66.60 66.80 67.43 67.55 67.68 67.10 66.49 66.40 65.22 64.06 64.19
29.16 27.06 28.52 25.60 24.73 21.78 19.66 23.72 32.35 33.47 35.00 35.48 37.71 40.28 40.87 42.06 42.54 43.94 44.97 46.48 46.82 47.58 48.26 48.82 49.32 51.07 52.17 54.96 52.73 56.98 58.40 60.58 61.12 62.06 63.01 64.06 65.25 66.22 66.42 66.90 67.03 67.28 67.16 66.94 66.07 64.90 64.63 63.63 62.92
33.00 30.20 28.99 22.29 19.46 27.38 19.28 25.09 37.08 36.72 35.89 37.64 37.69 39.39 41.87 43.58 43.68 43.28 44.61 46.45 46.66 48.19 48.22 48.27 49.04 49.69 52.44 55.61 53.96 55.18 58.87 60.90 61.92 63.01 63.89 64.92 65.49 66.47 66.54 66.74 66.69 66.62 66.18 65.87 65.22 63.92 64.29 63.64 62.20

GFSSGP_sfc_wetblb_057.txt.gz
Wetbulb
65.79 63.52 58.65 56.68 49.06 48.55 44.51 45.72 48.44 48.88 49.09 52.54 53.21 52.17 52.67 54.08 53.84 52.40 69.09 70.94 69.25 71.29 75.53 76.86 76.87 77.03 76.75 76.37 76.55 76.47 76.57 76.79 76.92 76.84 76.68 76.59 76.46 76.34 75.93 75.61 75.31 74.44 73.42 72.26 71.31 70.37 69.22 68.09 67.20
64.46 61.44 58.13 53.08 45.69 42.18 43.52 46.97 47.55 49.82 51.79 53.22 53.55 52.83 52.92 52.92 56.45 59.60 65.84 70.16 69.28 73.00 76.73 76.01 76.62 76.87 76.75 76.12 75.82 75.72 75.92 76.09 76.24 76.16 76.14 75.99 75.71 75.56 75.31 74.92 74.40 73.39 72.40 71.59 70.48 69.38 68.44 68.00 67.84
62.74 61.86 56.13 51.09 45.24 41.01 43.35 46.50 49.54 51.00 51.86 51.32 52.32 55.17 54.22 56.46 64.47 61.76 69.51 68.85 69.36 72.60 75.44 76.51 76.83 76.65 76.75 76.37 75.67 75.29 75.39 75.57 75.49 75.62 75.62 75.32 75.14 74.79 74.74 74.37 74.00 72.97 71.83 70.81 69.90 69.33 69.01 68.72 68.58
60.45 60.13 54.52 47.85 43.37 44.29 46.09 49.28 51.22 50.29 51.92 52.89 53.63 54.22 57.77 66.09 64.13 69.93 70.37 68.80 69.51 72.37 73.76 76.11 76.57 76.35 76.40 76.45 75.72 75.37 75.34 75.37 75.29 75.17 75.22 74.89 74.72 74.47 74.14 73.97 73.67 73.01 71.75 70.62 70.29 70.33 70.12 69.33 68.99
60.33 57.05 49.19 46.10 44.59 46.26 47.77 50.24 50.83 49.98 51.72 53.22 55.59 54.93 55.88 62.69 68.75 69.52 69.58 68.43 69.01 71.38 73.22 75.86 76.42 76.52 76.40 76.32 75.92 75.59 75.49 75.21 75.16 75.09 75.09 74.89 74.49 74.14 73.97 73.80 73.45 72.80 72.27 71.70 70.95 70.77 70.82 70.55 69.38
54.63 55.21 46.83 44.17 45.79 46.72 49.64 51.50 51.60 51.87 54.49 55.84 55.84 55.52 56.93 63.00 68.04 67.95 68.60 68.26 69.57 71.01 72.56 74.51 76.50 76.39 76.07 75.84 75.64 75.48 75.18 75.06 75.03 75.03 74.93 74.81 74.36 74.09 73.77 73.55 73.15 72.79 72.52 71.99 71.24 70.95 71.09 70.95 70.63
53.27 50.41 46.11 46.74 45.49 47.44 50.14 55.25 54.13 54.00 54.68 54.67 57.40 54.27 57.57 61.39 67.48 67.32 67.17 68.15 69.82 71.17 72.12 74.14 75.24 76.50 76.29 75.64 75.39 75.28 75.20 74.77 74.82 74.64 74.54 74.50 74.35 73.93 73.66 73.19 72.98 72.75 72.52 71.87 71.42 71.42 71.30 70.95 70.34
56.23 53.00 47.30 47.11 45.24 46.15 52.53 54.44 56.13 54.60 54.14 57.92 57.66 53.74 54.14 61.20 67.33 67.42 67.35 67.85 69.08 70.35 70.60 72.83 74.19 75.24 75.49 75.66 75.55 75.40 75.21 75.03 74.70 74.70 74.65 74.53 74.39 74.00 73.53 72.55 72.45 72.76 72.53 72.09 71.72 71.54 71.52 71.05 70.73
54.16 48.84 45.79 47.23 46.62 48.75 53.94 52.23 55.46 56.62 54.51 55.53 56.37 56.39 57.26 64.71 67.17 67.06 66.41 66.45 67.10 68.36 70.70 72.57 73.79 74.62 74.91 74.58 74.98 75.46 75.40 75.25 74.86 74.95 74.64 74.03 73.60 73.68 73.43 72.03 72.11 72.43 72.51 72.11 71.89 71.74 71.61 71.12 69.99
50.16 46.42 46.66 51.28 52.12 51.50 52.72 51.58 52.98 52.05 52.51 52.99 54.50 56.60 57.62 58.03 62.82 65.83 65.85 65.29 65.56 66.40 68.71 71.42 73.38 73.69 74.47 73.74 74.84 74.92 74.81 74.81 75.05 74.95 75.18 74.56 74.45 74.29 72.85 72.54 71.71 72.38 72.48 72.18 72.03 71.95 71.82 70.75 69.34
47.21 44.80 48.93 50.41 49.75 50.42 50.10 51.20 51.44 50.53 49.52 52.55 51.46 53.40 55.20 57.19 59.04 63.22 66.01 66.29 66.14 66.63 67.66 69.34 72.24 73.65 73.40 72.95 73.96 74.20 74.39 74.42 74.41 74.66 74.26 74.60 73.57 73.54 73.32 72.55 72.16 71.51 71.45 69.57 70.21 69.84 69.29 69.32 69.57
43.47 46.02 47.15 49.66 48.56 46.97 47.08 49.29 47.85 49.37 50.32 52.73 53.05 54.26 55.14 55.40 57.66 58.69 62.45 66.46 66.13 66.37 67.15 68.96 70.22 72.06 72.91 72.50 72.61 73.18 73.14 73.74 72.97 72.86 73.42 73.00 71.15 72.40 72.55 71.67 71.66 71.82 70.55 70.13 69.51 68.71 69.07 69.36 69.22
43.66 44.13 45.28 46.40 46.28 46.32 46.24 46.78 48.32 47.86 50.28 51.58 53.30 53.28 53.25 54.41 56.32 58.58 60.47 66.56 67.49 66.67 67.14 67.89 69.58 70.46 71.88 71.88 71.49 72.17 72.20 72.87 72.44 72.51 73.04 72.89 71.75 71.64 71.74 71.58 71.05 70.57 70.23 69.46 68.98 68.32 68.47 68.26 68.58
44.29 44.44 44.98 45.60 46.09 46.57 44.33 45.45 46.61 48.28 50.28 50.22 51.47 52.61 53.70 54.65 55.76 57.90 60.23 63.85 66.65 67.84 67.37 68.06 69.01 71.22 71.16 70.58 70.82 71.37 71.89 72.14 72.10 71.64 71.67 72.72 71.96 71.42 70.48 70.65 70.15 69.66 69.44 68.87 68.51 67.97 67.63 67.16 67.35
44.08 41.46 43.09 44.02 44.47 44.11 45.76 41.50 43.10 47.39 48.84 48.85 49.93 51.00 52.02 52.73 54.00 54.60 57.37 61.17 65.67 67.88 68.42 68.99 69.55 70.47 71.47 71.51 69.53 70.38 69.73 70.23 70.18 70.49 71.42 70.66 71.29 70.90 70.44 69.39 68.66 68.68 68.99 69.26 68.80 68.13 68.03 66.87 66.77
41.24 40.43 37.93 42.36 43.03 43.96 44.10 38.55 44.21 46.72 46.84 46.77 48.75 49.68 50.67 52.39 53.65 55.39 56.62 58.51 60.73 65.22 67.61 70.39 69.32 68.99 70.51 70.60 69.97 68.78 69.50 68.99 68.78 69.28 69.53 69.79 69.78 69.63 68.69 68.10 67.39 68.18 68.15 67.48 67.21 66.92 66.01 65.82 66.04
39.73 36.93 36.94 39.09 43.82 43.74 42.73 39.77 44.43 46.81 46.08 46.05 47.44 48.89 49.78 51.38 53.82 56.38 56.69 57.67 59.72 62.92 67.73 70.38 70.07 67.91 69.93 68.99 68.93 68.48 70.19 68.70 69.22 68.86 68.70 68.77 68.95 69.18 67.60 67.00 66.97 68.44 67.32 66.62 66.70 66.57 66.14 65.85 65.88
34.86 35.58 36.84 36.83 41.09 43.21 41.46 41.21 43.96 45.74 45.40 45.46 46.35 47.35 49.10 50.28 52.40 54.92 56.11 57.25 58.56 60.47 63.46 68.28 71.31 71.37 70.09 67.36 67.01 67.48 68.04 69.06 68.84 69.22 68.41 66.83 68.22 67.97 67.63 66.78 67.85 68.01 66.81 66.25 66.95 67.15 67.24 66.89 66.54
38.75 37.17 36.24 39.18 41.86 40.87 40.64 40.79 42.64 44.95 45.07 45.38 46.17 46.48 48.02 49.82 52.52 53.84 55.13 56.59 56.96 59.08 59.75 61.50 66.54 72.98 72.20 69.97 67.44 66.15 65.10 67.05 67.81 68.56 70.20 66.83 68.19 68.87 68.19 67.13 65.27 66.69 66.57 68.35 68.33 67.77 67.27 66.59 67.21
38.40 36.64 36.38 39.77 41.82 40.64 40.05 39.36 42.43 44.17 44.86 46.02 46.72 47.16 47.81 48.58 49.80 51.87 54.03 56.03 57.70 57.39 59.33 59.79 61.08 65.53 70.61 71.61 71.57 70.87 69.99 68.79 69.44 69.94 71.73 71.33 69.87 69.28 68.76 68.14 67.60 67.58 67.91 68.77 68.60 67.93 67.16 67.32 67.71
38.33 36.86 36.61 36.01 39.44 40.88 39.41 37.39 39.17 42.67 44.61 45.86 47.05 48.02 48.38 48.26 48.00 50.21 52.66 54.97 56.40 57.27 58.13 58.90 60.02 60.91 64.65 69.67 70.98 71.33 70.99 71.11 69.62 70.49 71.15 70.97 70.38 70.22 69.91 70.60 69.68 68.93 69.66 68.87 69.01 68.55 68.25 67.44 67.38
35.18 40.92 38.72 37.16 35.84 31.85 38.77 30.51 37.51 40.43 42.01 43.71 45.21 47.12 47.82 49.02 49.65 51.12 51.94 53.14 54.28 55.49 56.73 58.13 59.61 60.44 60.66 64.96 67.38 70.78 69.23 68.85 70.96 71.24 72.04 72.31 71.26 70.78 71.19 71.40 70.89 70.34 69.76 70.63 69.86 69.54 69.13 68.65 67.22
37.02 41.15 38.82 38.00 36.05 34.57 35.08 32.47 36.66 39.96 39.59 41.56 44.91 46.80 48.70 50.22 51.04 51.21 51.86 51.87 53.35 54.89 55.21 57.06 58.87 60.15 61.66 61.97 65.39 66.31 69.57 70.51 71.77 71.25 73.26 74.05 72.33 72.28 71.79 72.61 71.62 70.67 70.60 70.92 70.61 69.52 68.82 68.58 67.69
41.13 38.86 37.49 36.22 35.36 29.48 33.26 32.92 34.54 37.63 39.66 41.84 44.89 47.21 48.92 49.89 50.84 51.70 52.53 53.28 53.51 54.44 54.67 56.04 57.16 59.82 61.08 61.22 62.89 64.84 66.61 68.46 68.59 69.89 69.96 70.18 70.59 71.28 72.61 72.67 72.20 72.23 71.66 71.02 70.68 70.34 69.63 68.53 68.17
39.32 36.22 30.00 28.36 28.75 28.30 34.94 32.25 35.17 40.49 42.36 43.10 43.89 46.42 49.12 50.32 50.89 51.15 51.18 51.88 52.90 54.05 55.33 55.59 55.89 57.37 59.86 59.79 60.93 63.36 65.20 66.52 68.13 69.22 68.75 69.70 68.60 69.34 72.34 72.56 72.68 71.75 71.84 71.86 71.00 69.99 69.39 68.87 68.12
37.02 36.10 30.30 21.08 25.18 28.98 34.34 29.48 36.49 41.76 44.00 45.58 46.76 48.14 49.46 49.96 50.15 50.52 51.59 51.86 52.48 53.95 55.18 55.78 55.76 56.05 57.63 59.03 59.90 62.46 65.08 65.53 67.29 68.89 67.99 67.36 67.46 70.28 73.20 72.11 72.36 72.17 71.93 71.25 70.74 69.92 69.75 69.83 69.22
35.83 33.75 36.74 30.94 31.50 28.07 32.17 35.71 40.16 42.84 43.12 44.24 45.52 46.88 47.73 48.05 49.47 50.63 51.53 51.82 52.66 54.23 55.49 55.75 55.48 55.99 57.58 58.68 59.63 61.55 63.34 66.33 67.95 71.03 71.09 69.37 69.76 70.26 71.55 71.29 71.32 71.50 71.58 71.30 70.92 70.44 70.52 70.08 69.50
39.20 40.47 31.52 33.46 23.58 22.21 30.02 31.70 33.19 38.75 40.32 42.71 43.60 45.10 46.27 47.99 49.43 50.90 51.38 51.24 52.71 55.27 55.81 56.24 56.37 55.81 56.77 58.18 59.11 60.32 62.07 65.31 67.42 69.99 69.83 70.27 70.84 70.40 70.35 70.79 71.48 71.59 71.74 71.79 71.97 71.50 71.57 70.24 68.18
35.61 34.50 35.02 34.23 32.44 26.11 25.15 31.33 40.35 40.04 42.02 42.14 43.96 45.33 46.02 47.48 49.01 50.06 50.97 51.96 54.24 55.36 56.54 57.25 58.29 57.26 55.96 57.25 58.31 59.99 61.43 64.15 66.12 67.08 68.20 68.78 69.76 69.93 70.07 70.60 71.08 71.64 71.87 72.11 71.68 70.20 70.73 68.58 66.71
38.63 36.68 36.52 30.45 28.49 31.66 30.21 30.11 42.83 43.14 42.95 44.04 44.53 45.67 46.69 48.16 49.11 49.70 50.37 51.87 54.01 54.21 54.57 55.58 56.73 58.13 57.09 56.89 57.58 59.07 61.55 63.64 64.87 65.86 67.20 68.49 68.93 69.99 70.13 70.49 70.99 71.61 71.79 71.84 70.55 69.30 68.51 66.47 65.68

GFSSGP_sfc_wetblb_060.txt.gz
Wetbulb
67.58 64.47 62.66 60.41 51.85 50.82 50.24 49.99 52.55 51.32 52.20 54.99 55.68 54.58 54.88 56.99 55.49 55.81 71.04 72.54 70.18 71.87 76.56 77.33 76.85 77.20 77.68 77.98 77.88 77.62 77.47 77.22 77.30 77.07 76.95 76.84 77.11 77.02 76.66 76.41 76.01 75.21 74.26 73.26 72.04 71.02 70.06 68.73 67.52
65.58 63.52 61.36 56.81 48.61 46.94 49.22 51.61 50.36 52.36 53.63 55.39 56.03 56.03 55.32 55.10 60.27 63.81 63.37 72.37 70.79 73.58 76.53 76.12 76.62 76.90 77.35 77.55 77.37 76.99 77.29 77.29 77.24 77.07 77.02 77.07 76.78 76.61 76.21 75.81 75.14 74.31 73.42 72.16 71.16 70.11 68.95 68.00 67.55
64.33 64.11 56.87 51.92 48.72 46.25 47.37 49.95 51.66 53.45 54.12 54.68 55.09 58.76 57.33 57.37 63.59 66.44 70.48 72.23 71.50 74.26 76.48 76.28 76.45 76.55 76.97 77.22 76.87 76.76 76.94 76.99 76.99 76.99 76.94 76.64 76.46 76.13 75.73 75.31 75.02 73.66 72.45 71.70 70.27 69.34 69.35 68.73 68.42
63.29 61.01 57.19 49.58 46.01 47.02 47.65 51.77 53.01 52.99 54.33 55.46 55.85 56.84 60.41 64.42 65.07 70.22 72.56 72.65 71.35 74.30 75.45 76.80 76.24 76.32 76.52 76.75 76.49 76.41 76.61 76.68 76.48 76.61 76.61 76.26 75.86 75.38 75.01 74.89 74.47 73.88 72.40 71.13 70.45 70.34 70.06 69.55 68.98
62.16 58.70 51.63 49.75 47.70 48.26 49.61 52.30 53.55 52.28 53.28 54.05 57.31 56.77 58.63 62.86 67.59 70.70 72.35 72.64 70.63 73.60 74.57 77.75 76.17 76.27 76.42 76.55 76.22 76.04 76.04 75.93 75.91 76.04 76.01 75.71 75.14 74.83 74.69 74.62 74.14 73.64 73.00 71.96 71.09 70.71 71.08 70.84 69.65
56.10 56.67 50.17 48.18 49.77 50.77 51.25 54.53 55.21 55.30 55.98 56.08 56.74 57.73 59.49 63.48 66.56 69.38 71.70 72.05 71.18 72.19 73.90 76.86 76.71 76.24 76.22 76.24 75.79 75.56 75.36 75.18 75.24 75.19 75.19 75.06 74.71 74.51 74.39 74.02 73.84 73.55 72.95 72.50 71.81 71.21 71.11 71.05 70.47
55.41 53.25 49.84 50.31 50.35 50.37 52.35 56.24 55.50 56.06 56.65 56.00 58.96 56.22 60.24 61.52 66.85 69.55 70.83 71.70 71.05 71.70 72.87 75.84 76.72 77.13 76.28 75.96 75.66 75.46 75.27 74.95 74.80 74.55 74.63 74.65 74.56 74.36 73.99 73.84 73.52 73.42 73.09 72.61 71.91 71.65 71.25 70.81 70.05
57.28 54.62 50.48 50.98 49.72 50.40 54.69 54.74 57.10 56.93 56.10 59.84 59.25 56.25 57.52 60.98 62.59 68.57 70.68 69.94 70.38 71.19 72.11 74.39 75.36 76.16 76.08 76.10 75.86 75.57 75.49 75.24 74.78 74.86 74.64 74.66 74.63 74.18 73.79 73.02 72.99 73.25 73.12 72.65 72.23 72.03 71.66 70.94 70.39
57.50 51.93 49.19 49.96 50.61 52.10 55.72 53.46 56.78 58.93 56.84 57.78 58.56 58.78 60.30 61.09 61.73 65.98 69.86 68.29 69.77 70.09 71.53 73.29 73.97 75.14 75.06 74.33 75.62 75.64 75.57 75.21 75.04 75.14 74.96 74.27 73.31 73.92 73.72 72.20 73.02 73.12 73.05 72.60 72.26 71.91 71.69 70.85 69.56
52.51 49.92 50.46 54.09 54.36 53.74 55.31 55.55 54.75 54.96 55.76 56.22 57.22 59.94 59.97 60.12 60.78 61.84 64.56 68.63 67.87 69.13 70.18 72.11 73.86 74.43 74.53 72.89 74.80 75.27 75.04 75.37 75.26 74.93 75.23 74.22 73.75 74.01 72.54 72.95 72.80 72.83 73.00 72.68 72.50 72.30 71.71 70.65 68.80
51.02 48.61 52.33 53.17 54.79 56.03 55.07 54.90 55.69 54.13 53.04 56.24 55.92 56.54 58.03 58.74 59.83 60.24 62.91 65.48 68.21 68.48 70.16 71.68 74.14 75.34 74.41 73.38 73.80 74.08 73.85 74.26 74.93 75.30 75.30 75.24 74.30 74.73 73.79 72.99 73.36 72.04 71.75 70.28 70.66 70.68 69.70 69.41 69.50
46.96 50.40 51.37 51.99 53.97 53.08 52.42 54.51 53.51 53.95 55.20 56.47 56.25 56.54 56.84 57.33 58.10 58.98 60.16 62.40 65.66 68.80 68.41 70.56 73.11 74.82 75.78 74.16 73.87 73.77 72.87 73.98 73.95 74.81 75.92 75.18 74.45 74.45 73.81 72.37 72.54 72.61 71.55 71.27 70.45 69.63 70.24 69.92 70.10
46.80 48.39 49.28 51.16 51.91 51.90 52.56 50.64 51.39 50.79 54.11 53.34 53.72 55.01 55.42 56.43 57.68 59.52 60.51 62.99 66.82 68.31 70.14 69.86 71.95 73.79 74.61 75.34 73.61 73.71 73.32 73.47 74.28 74.06 75.30 74.70 73.83 73.19 73.36 73.17 72.49 72.14 71.92 70.93 70.90 69.82 69.75 69.87 69.81
47.72 48.09 48.48 49.56 49.82 50.23 48.61 49.24 49.96 50.83 52.84 52.89 53.62 53.72 54.88 55.67 57.18 58.32 60.15 62.29 66.16 68.17 69.42 70.55 71.06 73.21 73.95 74.41 75.08 74.02 74.43 74.27 74.31 73.14 73.86 74.71 73.61 73.26 72.51 72.76 72.34 71.77 71.38 70.66 70.29 69.71 69.47 69.19 69.06
47.47 44.69 46.91 47.65 48.51 48.19 49.40 46.52 47.31 50.86 50.94 50.43 52.34 53.29 54.24 54.91 55.60 56.06 58.46 60.47 63.28 67.23 69.36 72.00 72.05 72.17 73.07 74.15 74.02 73.07 72.95 72.54 72.78 72.76 74.55 74.20 74.53 74.32 73.97 71.69 71.62 71.20 72.29 72.29 71.29 70.58 69.95 69.06 68.96
44.85 45.04 41.82 46.09 46.23 47.43 46.38 42.85 47.10 49.56 49.14 49.02 49.67 51.15 52.58 54.31 54.89 56.60 57.16 60.03 61.86 62.99 65.78 70.60 70.39 71.65 73.37 73.34 73.58 72.17 71.08 71.69 71.33 71.77 72.05 73.50 74.12 73.73 73.63 70.86 70.49 70.75 70.99 70.46 69.90 69.66 69.06 69.32 69.33
44.58 40.45 41.28 43.12 46.92 46.20 46.11 43.82 47.80 49.50 48.81 47.78 48.82 50.91 51.37 52.81 54.44 56.80 57.43 58.49 60.30 62.84 64.81 68.18 72.16 70.52 71.90 73.65 72.45 73.15 73.49 71.20 70.24 71.07 70.91 72.05 72.25 72.65 72.33 70.42 70.01 71.74 69.81 69.42 69.55 69.67 70.23 70.21 69.72
40.83 40.42 41.14 41.47 45.01 45.48 44.59 44.60 47.51 49.09 48.83 48.69 48.48 49.51 50.48 51.67 53.43 55.95 57.33 58.20 60.01 62.11 63.70 65.08 70.55 71.93 72.00 71.57 72.21 70.81 70.05 70.30 70.26 69.80 69.98 71.37 71.42 71.53 72.13 69.75 69.86 69.55 68.92 68.79 69.08 71.22 71.30 70.86 70.46
42.17 40.96 40.50 42.73 45.04 44.17 44.26 44.74 46.33 48.33 48.76 48.66 49.35 49.55 50.34 51.18 53.86 55.81 56.88 58.98 60.13 62.60 63.59 64.97 64.53 69.20 72.59 68.21 67.96 67.80 68.46 68.83 68.93 70.21 71.87 71.65 72.26 72.14 72.26 69.07 69.46 70.34 70.80 70.56 70.44 71.47 71.26 70.93 71.16
41.95 40.79 40.98 43.08 44.59 43.68 43.62 43.13 45.64 47.27 47.45 48.50 49.06 50.22 50.54 51.13 52.10 53.65 55.29 57.59 60.00 61.16 62.80 63.49 64.63 65.28 67.80 72.61 73.13 71.81 69.99 68.82 69.23 70.34 71.54 72.52 71.20 71.60 71.14 72.60 70.92 71.39 66.26 70.94 72.19 72.46 70.88 71.11 71.38
41.83 40.47 40.52 39.92 42.53 44.01 42.68 41.83 43.78 45.54 47.14 47.91 49.17 50.26 50.58 50.24 50.95 51.98 53.66 56.41 58.55 59.16 60.05 61.12 63.19 65.05 65.98 67.30 70.96 73.74 73.92 73.51 71.33 70.28 69.90 71.39 72.40 70.69 72.22 72.35 71.85 71.25 70.12 70.58 73.48 72.98 72.41 70.14 70.58
39.21 42.85 40.86 39.85 39.28 36.89 42.00 35.92 42.17 44.33 44.78 46.35 47.09 47.68 49.39 50.70 52.48 52.70 53.76 54.80 55.93 57.25 59.22 60.81 62.24 63.46 64.87 66.04 66.84 70.99 71.20 70.80 70.72 73.14 71.43 72.21 74.29 72.55 72.91 73.18 72.41 73.21 73.20 74.41 73.97 73.49 72.49 72.36 70.69
40.13 42.56 41.57 41.09 39.67 39.49 39.65 36.81 40.99 43.41 42.28 45.15 46.48 48.38 50.55 52.56 52.66 52.83 53.64 54.43 56.46 57.83 58.63 60.54 61.59 62.75 63.93 65.84 66.70 65.85 69.03 69.15 71.62 73.35 75.14 75.39 75.78 74.24 73.54 73.97 74.34 74.97 73.73 75.18 75.34 73.91 73.12 72.69 71.51
43.95 42.13 42.32 42.47 40.24 34.05 38.93 37.58 39.78 41.64 42.96 44.74 46.58 47.62 49.69 52.16 53.36 53.96 54.10 55.38 55.87 57.73 59.03 60.12 60.60 61.05 62.52 63.79 65.14 66.33 66.40 68.16 68.33 71.39 72.44 72.95 73.69 74.58 74.31 74.03 75.39 75.50 75.10 74.89 74.45 74.66 73.82 73.48 73.01
43.02 40.44 34.76 33.42 33.62 34.18 39.28 36.40 41.30 43.84 44.72 45.57 46.24 47.74 49.69 52.29 52.66 52.72 53.90 54.91 55.83 56.04 57.79 58.70 59.63 60.22 61.76 62.10 63.24 64.74 65.90 67.59 68.60 70.77 69.59 72.51 71.85 72.34 75.04 75.61 75.86 74.85 75.69 75.44 75.20 74.29 73.88 73.07 72.27
41.33 40.33 34.54 26.32 30.65 34.71 39.25 34.31 40.31 45.28 46.46 47.49 48.16 49.41 50.91 51.91 52.65 53.07 54.12 55.24 55.45 56.40 57.65 58.88 59.22 59.47 60.38 61.25 62.27 63.61 64.93 64.99 67.12 68.54 68.20 68.64 70.22 71.55 75.05 75.00 75.10 75.58 75.64 75.56 74.72 73.86 73.03 73.22 72.26
39.43 37.10 42.03 35.41 36.72 33.32 36.90 39.84 43.84 46.08 45.71 46.27 46.85 47.90 49.62 50.98 52.18 52.98 54.06 55.13 55.62 56.51 57.73 58.99 59.67 60.73 61.44 61.40 62.79 63.47 63.49 64.65 66.42 71.27 72.47 69.26 72.04 71.15 73.04 73.92 74.67 75.02 75.15 74.75 74.71 72.68 72.54 72.94 72.80
42.03 43.54 35.62 36.85 27.21 27.95 34.95 36.80 38.68 42.43 43.72 45.38 45.98 47.16 49.42 51.21 51.66 52.82 53.83 54.87 55.96 56.96 58.28 59.25 60.28 60.59 62.24 62.80 62.32 61.72 62.98 64.80 66.48 68.30 70.37 71.97 72.98 72.63 72.35 73.06 73.90 74.39 74.45 74.04 73.80 73.09 73.82 73.50 73.07
39.04 38.70 38.83 38.66 37.02 30.93 30.71 36.28 44.54 43.60 44.92 45.08 46.13 48.00 49.47 50.13 51.03 51.91 53.50 54.74 55.35 56.09 57.81 58.78 58.96 59.07 60.22 62.48 62.82 61.94 62.15 63.14 64.84 66.41 68.80 70.84 73.43 72.66 71.47 72.28 73.21 73.54 73.34 73.70 73.77 74.37 74.23 73.62 72.98
42.43 40.08 40.04 33.55 32.33 35.68 34.33 34.77 46.36 46.22 46.72 46.83 47.82 48.98 50.00 51.32 51.74 52.34 53.31 54.14 54.56 54.93 55.81 57.18 58.20 58.36 59.33 61.24 63.04 62.35 62.33 63.19 64.15 65.87 68.49 70.08 70.84 72.44 72.57 72.95 72.76 72.39 72.41 73.81 73.95 73.84 73.34 72.25 71.28

GFSSGP_sfc_wetblb_063.txt.gz
Wetbulb
66.91 66.60 61.80 59.86 52.47 52.34 51.64 54.08 55.87 53.05 53.18 56.59 57.57 56.55 57.59 58.49 56.58 56.35 69.29 71.43 70.41 75.37 75.53 76.64 77.17 77.97 78.38 78.41 77.98 77.62 77.34 76.92 77.12 77.12 76.99 77.04 77.06 77.19 77.01 76.63 76.16 75.52 74.65 73.73 72.61 71.53 70.47 69.11 67.64
64.41 64.40 61.90 56.95 50.14 49.06 50.87 56.24 52.84 55.32 55.84 56.47 56.57 56.58 55.92 55.56 60.76 64.15 67.12 72.20 70.37 76.38 76.24 75.61 77.14 77.72 78.02 78.07 77.89 77.36 77.22 77.07 76.94 76.97 76.86 77.11 77.16 76.91 76.46 76.26 75.66 74.80 73.74 72.66 71.42 70.30 69.21 67.97 67.34
64.84 63.69 58.24 54.38 50.12 48.90 50.98 53.71 54.62 55.70 55.55 54.94 55.42 58.11 58.21 58.27 63.93 66.05 70.37 72.99 70.95 75.74 76.47 75.84 76.82 77.42 77.92 78.00 77.61 77.23 77.13 77.24 77.16 77.07 76.99 77.16 76.88 76.60 76.18 75.81 75.54 74.21 72.98 71.97 70.82 69.57 68.88 68.21 68.01
62.41 61.60 58.14 51.44 49.58 52.09 52.35 53.32 54.75 54.53 55.16 55.93 56.09 55.85 60.44 64.42 64.21 67.88 71.25 73.40 72.76 74.26 76.15 76.05 76.24 77.04 77.59 77.77 77.36 77.18 77.31 77.28 77.21 77.11 77.11 77.06 76.80 76.15 75.80 75.56 75.11 74.40 72.72 71.56 70.44 69.81 69.47 69.01 68.82
61.78 58.67 52.76 51.18 50.86 53.23 54.13 54.16 54.47 53.71 54.62 54.61 55.99 55.67 58.73 64.07 66.67 68.82 72.43 73.07 72.93 72.91 75.99 77.07 76.24 76.74 77.17 77.57 77.26 77.16 77.03 76.92 76.85 76.88 77.06 76.73 76.27 75.70 75.45 75.18 74.84 74.30 73.34 71.64 70.58 70.25 70.52 69.91 69.08
57.77 57.78 50.67 48.99 51.45 54.03 53.59 54.54 55.56 55.20 55.90 55.89 55.53 57.22 59.80 64.80 64.05 67.66 72.66 73.08 72.98 72.56 75.06 77.68 75.95 76.11 76.34 76.61 76.53 76.45 76.29 76.39 76.49 76.42 76.42 76.18 75.40 75.05 74.93 74.79 74.36 74.12 73.41 72.59 71.72 71.12 70.82 70.64 69.77
55.81 54.61 50.83 51.26 51.80 53.38 54.36 55.49 55.17 55.78 56.67 56.38 59.11 55.77 60.58 62.87 63.51 65.09 72.27 72.68 71.95 72.79 73.79 77.13 75.44 76.33 76.26 76.08 75.80 75.72 75.54 75.36 75.36 75.23 75.34 75.24 75.05 74.75 74.60 74.18 74.14 73.73 73.32 72.89 72.25 72.01 71.48 71.04 70.23
56.88 55.61 51.65 52.31 51.06 51.77 56.21 56.37 56.51 56.81 56.34 60.83 59.81 55.67 58.33 61.98 63.16 64.54 70.42 71.73 72.29 72.14 72.72 75.81 74.53 75.45 75.27 75.49 75.88 75.59 75.64 75.36 74.96 74.84 74.99 74.81 74.72 74.40 74.31 73.70 73.44 73.54 73.44 73.14 72.52 72.15 71.78 71.18 71.00
57.68 51.80 49.88 51.34 51.89 53.59 57.00 55.47 57.56 58.77 58.13 59.01 59.65 59.58 61.11 62.17 62.55 63.32 66.43 70.14 70.57 71.03 72.25 74.74 73.89 74.45 74.33 73.64 75.63 75.46 75.50 75.20 75.21 74.94 74.89 74.24 72.46 73.34 73.52 72.26 73.26 73.39 73.29 73.04 72.67 72.33 71.88 71.36 70.20
52.90 50.40 50.89 54.60 55.41 54.76 56.08 56.28 56.44 55.50 56.56 57.96 58.94 60.86 61.99 61.34 61.16 61.04 62.44 67.26 69.08 70.13 70.89 73.17 74.97 74.07 73.86 72.24 74.97 74.41 74.20 74.12 74.13 73.69 74.36 73.45 73.64 74.00 72.07 72.74 73.54 73.39 73.27 73.19 72.70 72.37 71.93 70.37 67.59
52.28 49.07 52.84 54.43 55.76 56.52 55.87 56.02 57.85 56.15 53.99 56.27 57.67 59.72 60.02 60.08 60.48 60.35 61.05 63.32 68.71 70.39 70.60 71.69 75.74 77.04 75.02 72.84 73.99 73.37 72.94 73.24 73.88 74.01 75.46 74.90 73.31 74.54 72.67 72.53 72.10 72.02 72.04 69.93 70.62 70.10 69.43 68.74 68.48
49.50 52.12 52.68 53.52 55.19 54.86 54.17 57.02 56.20 56.82 56.98 57.76 58.87 60.58 59.59 58.38 58.83 59.41 59.89 61.55 66.36 69.11 70.26 71.19 74.02 75.80 77.62 73.16 72.87 73.51 72.10 73.66 73.13 73.69 76.38 76.28 73.74 76.11 75.62 72.22 72.99 74.42 71.19 71.41 70.61 70.12 71.78 70.34 69.91
49.74 51.08 52.41 53.13 53.24 53.88 55.05 54.36 54.30 54.97 57.46 58.36 57.97 59.79 59.13 58.85 58.51 59.49 60.90 62.16 65.18 67.43 70.18 70.85 73.52 76.26 76.86 78.16 74.02 74.23 73.28 73.18 73.52 74.12 75.60 74.90 74.29 76.25 75.15 75.30 72.85 73.51 72.24 72.00 71.74 71.01 71.53 70.56 70.42
50.01 49.85 50.20 51.56 51.21 52.44 51.90 52.27 52.70 53.69 56.01 55.59 55.87 57.16 58.55 58.39 57.99 58.59 59.82 61.36 65.44 67.52 69.89 71.93 71.90 76.33 76.53 76.37 78.41 76.30 75.99 75.12 74.55 74.24 75.29 76.05 75.25 76.31 73.62 74.21 72.77 72.28 71.73 71.64 71.68 71.88 70.99 70.56 70.29
49.68 46.92 48.82 49.45 50.39 50.02 51.41 48.30 48.86 52.76 54.21 53.79 53.88 55.84 57.58 58.79 58.34 57.68 59.24 61.53 63.40 67.41 69.82 72.66 73.36 73.43 76.06 76.69 76.48 75.48 75.06 73.99 74.21 74.41 77.77 76.79 76.82 76.89 75.60 72.83 72.64 72.43 73.50 76.41 74.27 73.18 71.74 70.05 70.25
46.51 46.88 43.28 47.95 49.04 49.40 49.21 44.38 49.96 52.97 52.83 52.05 52.72 53.57 54.71 57.12 58.00 58.27 58.50 60.82 62.72 63.53 65.17 70.67 70.67 72.82 74.16 74.03 75.43 73.20 74.00 74.37 73.81 73.76 74.41 75.92 76.72 76.16 75.94 72.51 72.36 72.41 73.06 71.54 71.22 71.11 69.87 69.69 70.24
46.16 42.07 43.88 45.50 48.30 47.61 47.64 45.06 49.64 52.12 51.52 51.14 52.50 52.72 53.63 55.15 56.83 58.50 59.31 60.10 61.08 63.76 65.10 68.13 71.94 71.73 73.69 74.34 74.52 74.62 75.46 73.50 73.36 73.11 72.83 75.05 75.46 75.45 75.00 73.00 72.66 75.39 71.91 71.40 71.23 70.55 71.57 70.75 70.96
43.03 43.50 44.41 44.05 47.32 47.55 46.31 46.35 49.26 51.24 50.99 50.92 51.69 52.39 52.88 53.92 55.19 57.12 58.48 59.21 61.97 63.59 65.25 65.96 69.39 74.00 73.50 74.33 74.57 72.86 73.00 72.10 73.00 72.44 72.32 73.78 74.50 74.45 74.71 72.69 73.41 73.23 70.45 70.35 70.31 72.73 71.83 71.09 71.83
45.64 44.22 44.04 45.74 47.74 45.27 45.90 46.52 48.30 50.43 50.86 50.46 51.26 52.07 52.61 53.52 55.25 56.96 57.61 58.30 60.01 62.98 63.96 65.26 65.62 70.17 71.81 72.08 70.42 70.87 70.57 71.21 71.78 71.64 71.44 73.38 73.40 72.30 73.23 71.76 72.65 72.43 70.95 69.89 73.79 71.85 70.22 70.59 73.20
44.41 42.63 42.79 45.44 47.01 46.03 45.74 45.40 48.31 49.72 50.14 51.04 51.36 51.85 52.23 52.94 53.86 54.95 56.31 58.09 58.92 59.79 65.02 64.41 64.18 66.21 68.57 72.44 70.39 70.48 69.71 70.39 71.28 71.87 72.44 72.01 72.60 73.66 73.68 71.75 72.53 72.41 69.86 72.78 71.59 71.53 70.26 71.28 72.88
43.18 42.23 42.86 42.89 45.54 46.27 44.72 43.05 45.49 48.40 50.08 50.60 51.34 52.30 52.78 53.27 53.41 54.11 54.91 57.58 58.81 59.71 59.79 61.36 63.40 64.50 67.08 69.90 71.45 73.03 72.32 72.40 70.90 69.41 69.45 71.30 71.86 72.87 73.16 72.36 71.52 72.74 71.35 71.34 71.44 71.65 73.54 68.93 72.69
40.94 45.69 44.29 42.61 41.28 38.20 44.97 37.06 44.66 46.56 46.76 48.33 49.65 51.03 51.92 52.79 53.55 54.57 55.31 56.70 57.79 58.07 59.18 60.16 62.46 63.99 65.56 66.96 67.95 71.02 72.37 71.63 72.15 71.69 72.04 72.35 71.34 72.49 71.84 72.30 70.93 71.16 71.81 72.24 72.48 73.99 73.74 74.27 71.24
42.17 44.78 43.52 43.18 41.71 41.28 41.51 39.19 42.78 46.78 45.03 46.66 49.03 50.56 51.89 53.34 53.78 54.04 54.88 55.95 56.83 57.37 59.60 60.71 62.18 63.67 64.49 65.56 68.96 66.42 68.06 68.61 72.54 74.12 75.75 76.27 73.91 73.01 71.78 70.27 70.53 71.55 73.30 74.01 74.66 76.00 76.68 73.95 72.53
46.07 43.75 43.62 43.59 42.05 36.09 40.78 40.15 40.89 43.69 45.11 47.11 48.64 49.45 50.51 52.50 54.16 54.36 55.14 55.93 56.55 57.82 58.21 59.84 61.07 62.25 63.55 63.91 64.95 66.75 67.26 68.55 67.42 69.67 72.02 74.11 72.65 73.67 72.90 72.81 74.21 74.80 74.01 74.80 76.50 74.85 76.35 75.21 74.92
44.49 41.71 35.57 34.76 35.44 35.12 42.54 40.24 42.43 46.19 46.94 47.59 47.68 48.92 50.44 53.31 54.19 54.47 54.17 54.64 56.28 56.95 57.67 58.53 59.87 61.46 62.32 62.91 63.43 64.62 67.39 67.29 69.36 69.45 67.37 71.16 73.21 74.62 75.87 75.86 75.21 74.64 76.20 76.72 76.29 76.27 76.99 76.34 74.25
41.81 41.09 35.07 28.80 31.59 34.31 41.93 36.82 41.91 47.69 49.21 48.50 49.20 50.18 51.10 52.58 53.93 54.52 54.79 55.21 55.69 56.41 57.67 58.13 59.18 60.17 61.68 62.46 63.13 64.08 65.98 63.71 64.97 67.71 67.79 66.80 67.94 71.59 78.51 77.46 75.65 76.11 76.90 77.11 75.33 75.86 75.68 76.19 75.08
41.46 38.20 43.38 36.86 39.32 36.01 39.16 42.26 46.47 47.71 47.11 48.20 48.79 49.55 49.80 52.00 53.64 53.90 54.88 55.51 55.91 56.68 57.44 58.36 59.02 60.04 61.32 62.14 63.70 64.37 64.63 66.21 65.54 68.93 70.32 68.66 71.63 69.76 72.66 76.84 76.49 76.18 76.30 77.04 77.29 75.47 76.10 75.59 75.18
43.97 44.97 36.99 38.45 29.16 28.45 35.54 37.58 38.08 44.21 45.84 47.62 47.88 48.78 50.12 51.87 52.87 53.71 54.30 55.02 56.33 57.18 57.56 58.80 59.95 60.04 61.00 61.55 62.07 62.71 64.16 64.20 65.96 67.93 68.64 69.67 71.29 73.76 72.70 74.06 75.21 75.74 75.96 77.10 77.42 75.76 75.31 73.91 73.53
40.87 40.27 40.26 40.51 38.13 30.93 30.73 35.82 45.10 45.26 46.88 47.03 48.00 49.29 50.71 51.79 52.51 53.45 53.69 54.88 55.94 56.95 57.16 57.90 57.96 59.14 59.78 60.36 61.12 63.16 63.82 64.17 65.08 66.14 67.40 68.75 70.99 71.94 72.02 72.80 72.77 73.37 74.47 76.38 76.28 75.07 74.06 73.50 74.42
44.74 41.74 41.81 34.40 33.68 37.00 35.46 35.66 46.73 48.09 48.45 48.46 48.78 50.55 51.81 52.51 52.72 53.44 54.08 55.04 55.37 55.74 56.15 56.58 57.46 57.36 58.84 59.84 60.09 60.64 63.27 64.51 65.97 65.87 66.49 68.34 69.79 71.65 72.08 71.80 70.66 71.60 73.53 74.66 74.99 73.71 72.83 73.45 73.42

GFSSGP_sfc_wetblb_069.txt.gz
Wetbulb
62.82 61.21 59.92 57.46 44.92 43.95 41.28 45.96 50.82 52.02 51.50 51.06 52.64 53.26 58.78 59.88 58.80 54.40 67.52 71.28 73.66 74.46 76.63 77.62 77.84 77.85 77.64 77.54 77.03 76.72 76.82 76.70 76.50 76.57 76.84 76.94 76.87 76.67 76.50 76.25 76.06 75.73 74.59 73.85 73.09 71.94 70.49 69.16 68.09
60.85 61.42 58.93 52.86 42.29 37.99 42.12 50.26 49.49 49.14 50.43 51.92 52.81 52.64 56.26 56.96 63.17 63.64 67.26 71.62 73.40 74.27 75.52 76.64 77.92 77.54 77.62 77.41 76.75 76.50 76.55 76.80 76.40 76.60 76.87 76.99 76.79 76.57 76.27 76.15 75.78 75.10 73.60 72.67 71.68 70.68 69.19 68.17 67.42
59.74 61.29 52.65 47.18 42.86 40.15 43.94 49.90 48.80 51.19 52.39 51.99 51.85 54.44 57.75 58.92 62.80 63.40 69.62 72.00 73.25 72.97 74.13 76.55 77.86 77.44 77.59 77.21 76.65 76.34 76.49 76.69 76.47 76.60 76.87 76.84 76.63 76.23 75.99 75.87 75.38 74.53 72.91 71.98 70.87 69.83 69.54 69.02 68.21
54.80 54.98 52.95 44.08 42.56 47.16 48.98 51.73 51.43 51.07 52.70 52.69 52.52 53.87 59.51 62.73 62.58 63.90 70.89 72.98 72.81 72.21 74.06 77.22 77.65 77.43 77.34 77.36 76.78 76.39 76.47 76.67 76.60 76.67 76.89 76.83 76.50 75.98 75.71 75.52 75.08 74.37 73.00 71.68 70.79 70.82 70.47 70.06 69.05
52.91 50.95 43.36 42.19 44.47 48.86 51.72 52.61 52.28 49.29 51.19 52.36 52.44 52.68 56.97 60.36 61.55 61.99 68.78 73.13 71.89 71.37 74.62 76.07 77.26 77.47 77.48 77.46 77.08 76.72 76.62 76.49 76.36 76.69 76.78 76.65 76.27 75.75 75.43 75.29 74.91 74.12 73.62 72.29 71.27 71.03 70.66 70.37 70.11
47.44 49.94 42.07 39.50 44.34 50.82 53.24 54.01 52.02 50.57 51.73 53.25 53.77 53.97 55.71 59.41 58.98 59.25 65.86 68.23 72.86 71.36 74.01 75.47 77.29 77.31 77.14 77.15 76.87 76.73 76.39 76.40 76.33 76.42 76.55 76.44 75.89 75.55 75.36 75.12 74.63 74.15 73.57 72.83 72.15 71.20 70.79 70.43 70.15
45.38 44.27 42.21 44.11 46.22 48.39 51.75 54.00 51.08 52.24 52.61 53.00 54.73 53.82 55.53 57.27 58.58 59.07 59.25 66.60 72.54 72.99 73.43 74.15 75.66 76.77 77.22 76.86 76.52 76.47 76.25 76.33 75.97 75.81 75.84 75.77 75.59 75.14 74.95 74.51 74.30 74.01 73.16 72.63 72.21 71.64 71.13 70.93 70.79
49.04 46.14 43.57 45.51 45.60 46.60 52.85 52.97 51.59 51.59 52.35 56.93 58.94 53.70 51.93 57.17 58.86 59.09 58.70 65.86 72.31 73.03 73.08 73.08 74.84 75.58 75.57 75.55 76.67 76.31 76.20 76.10 75.79 75.79 75.72 75.42 75.16 74.82 74.58 73.28 73.62 73.66 73.29 72.77 72.42 71.88 71.43 71.21 71.26
49.78 43.48 41.28 44.01 46.41 48.21 52.51 51.05 52.73 54.55 53.54 55.14 58.06 58.04 58.58 58.82 58.78 57.91 57.67 58.59 71.92 72.93 72.04 72.19 73.30 74.21 74.29 74.84 75.63 75.93 76.52 75.93 75.57 75.55 75.29 74.04 71.76 72.10 72.93 72.60 73.18 73.60 73.26 72.84 72.66 72.17 71.67 71.60 71.55
44.48 41.38 43.26 47.86 49.07 48.71 50.78 51.23 52.61 52.66 52.49 53.23 56.32 58.98 61.14 58.82 57.40 56.76 56.64 55.76 65.46 71.28 71.13 71.26 71.79 72.59 72.57 74.95 74.16 73.86 74.82 74.30 73.67 73.51 73.10 71.47 69.90 69.84 71.28 71.62 73.09 73.11 73.18 72.98 72.73 72.53 72.19 71.70 67.34
45.25 42.33 46.66 48.82 50.27 51.00 50.14 50.79 53.21 53.05 50.04 52.72 53.41 56.18 57.98 58.45 56.13 56.50 56.35 55.03 55.42 66.43 69.90 70.15 70.99 71.20 70.57 72.30 73.23 73.26 73.25 72.81 72.32 72.19 71.84 70.20 69.42 69.50 69.23 67.82 69.03 69.28 71.95 69.29 70.76 70.39 69.69 67.68 66.25
42.03 46.77 47.98 48.87 50.74 50.20 48.88 50.52 49.87 51.32 53.61 56.80 57.32 57.11 57.04 56.94 55.14 55.93 55.98 55.26 56.46 63.95 68.57 69.58 70.60 70.43 69.74 72.05 71.63 70.96 71.37 71.13 70.76 70.45 71.04 69.74 67.79 66.29 68.15 67.96 67.69 67.99 67.93 67.33 65.40 66.45 66.54 66.26 65.21
43.66 45.68 48.04 49.09 49.36 49.10 49.98 49.20 49.20 49.51 54.58 58.42 58.17 58.31 56.13 56.14 55.49 56.12 56.30 56.43 58.85 61.10 67.94 69.64 70.31 69.42 69.59 71.19 70.52 69.97 70.11 69.84 69.40 69.41 70.48 69.86 67.51 67.96 68.74 67.81 67.68 67.90 67.85 67.42 65.64 65.08 65.37 65.24 65.42
44.93 45.33 45.78 47.27 46.99 47.31 47.01 48.24 48.09 50.04 52.67 55.88 56.66 56.03 56.15 55.94 56.38 55.90 56.26 55.86 59.45 62.08 64.89 70.11 70.73 70.38 69.71 70.98 71.08 69.01 68.18 69.52 69.70 69.78 70.39 70.87 68.83 67.66 69.59 69.04 69.66 69.08 68.83 68.06 66.82 65.45 65.56 65.81 66.23
45.82 42.39 44.16 45.18 44.65 44.74 46.51 44.29 45.93 49.41 51.03 50.41 53.43 53.67 55.15 55.48 56.08 55.32 55.96 56.68 59.80 61.76 66.04 67.49 71.19 72.36 71.33 72.47 72.65 72.36 69.91 69.83 69.75 69.93 70.24 70.62 70.91 68.24 68.40 70.14 69.17 69.41 69.02 68.44 67.60 67.47 67.30 66.61 66.56
41.57 41.48 35.85 41.97 44.95 46.21 44.09 39.74 46.30 48.66 48.49 48.71 50.31 50.73 51.00 52.89 54.40 54.94 55.94 59.21 59.21 60.15 61.87 65.21 69.09 72.02 70.90 71.19 71.64 71.91 72.32 71.16 69.95 70.42 70.72 71.34 70.35 71.69 70.75 70.28 69.33 68.87 69.03 68.18 67.48 66.02 65.08 64.47 64.39
37.93 34.31 36.32 40.04 45.26 44.91 43.34 41.49 46.02 48.73 47.85 47.15 47.86 49.22 49.95 50.54 51.55 53.99 57.86 58.91 59.54 59.94 61.23 63.28 66.01 70.52 71.57 71.60 72.56 71.38 71.52 71.65 71.44 70.86 71.79 71.69 71.17 72.19 71.91 69.88 69.12 69.48 68.38 67.99 67.96 66.18 65.79 64.81 64.69
34.43 35.57 38.53 39.35 43.75 44.50 42.61 42.37 45.65 47.28 47.29 46.80 46.90 48.01 49.09 49.85 50.68 54.43 57.22 59.73 59.70 60.02 60.84 61.57 64.28 68.42 71.13 71.41 70.94 71.07 70.54 70.82 70.50 70.05 70.28 72.29 72.64 72.21 71.11 70.59 69.56 68.87 68.66 66.90 66.68 66.42 66.48 65.01 64.94
41.17 39.70 38.92 42.07 45.26 44.19 42.43 41.54 43.91 45.69 45.31 45.04 46.31 47.21 47.86 48.97 51.36 54.52 57.00 58.42 59.32 60.51 61.20 61.44 63.13 69.02 69.66 70.08 68.96 68.07 68.67 69.00 68.42 68.49 69.14 69.30 71.40 72.42 71.45 69.83 69.28 69.79 68.48 66.55 65.80 65.48 64.88 65.11 67.50
41.66 39.20 38.08 42.05 44.81 44.01 42.42 42.43 43.81 44.95 45.08 45.57 46.52 46.67 47.67 48.52 50.15 52.67 55.71 57.68 57.68 59.15 59.62 59.79 61.54 63.57 68.15 69.53 68.91 68.21 68.07 67.84 68.52 68.47 68.56 68.90 69.71 70.66 71.23 70.93 69.71 69.42 67.90 66.95 65.94 65.10 64.60 65.23 66.48
40.15 37.86 38.46 38.66 42.30 43.46 41.52 39.38 41.95 45.34 46.06 47.23 47.94 48.05 48.58 48.59 48.99 50.02 53.56 54.94 57.55 57.66 57.68 59.00 59.37 61.31 61.97 65.13 68.02 66.81 66.37 67.70 67.48 68.07 67.88 67.86 68.49 69.22 70.24 70.19 70.57 68.62 68.37 67.90 67.22 66.13 64.85 64.23 65.41
36.29 42.62 42.48 41.70 38.52 31.44 40.75 29.34 38.20 42.10 43.24 45.86 47.18 47.65 47.20 48.65 50.45 50.80 50.75 52.44 53.90 57.14 57.02 57.32 58.39 58.71 59.62 60.29 63.32 66.77 64.85 63.33 65.18 65.23 66.91 68.33 68.37 68.71 69.12 69.22 70.13 69.48 69.15 68.15 67.04 67.16 66.34 66.26 63.82
39.42 44.50 41.47 40.86 37.79 34.47 36.38 30.13 34.55 40.90 40.98 43.28 45.98 47.66 46.61 47.77 49.31 49.90 50.01 50.85 52.99 54.10 55.84 57.47 57.62 57.47 57.87 58.76 60.70 62.59 62.95 64.42 66.09 66.61 66.30 66.62 67.72 68.44 68.59 68.32 69.44 69.15 68.59 68.44 67.14 66.39 66.73 67.14 65.41
44.76 41.47 39.31 38.23 34.17 26.94 34.37 32.83 34.30 37.51 40.79 43.45 45.31 46.37 47.59 47.54 49.13 50.46 51.81 51.96 51.55 51.95 53.60 54.21 56.58 57.06 57.63 57.84 57.93 59.37 61.00 62.54 63.15 64.04 64.08 66.25 66.97 67.73 68.01 68.10 67.50 69.08 68.74 68.08 67.79 67.04 68.35 68.51 68.02
42.49 35.07 24.32 23.20 23.42 25.69 37.45 35.90 36.73 42.62 45.83 45.46 45.15 45.60 47.04 48.48 48.90 49.69 49.37 50.01 50.33 51.25 52.05 54.91 55.03 55.05 57.08 57.15 58.39 58.72 59.26 59.86 61.14 62.65 63.27 63.97 64.45 65.47 66.90 67.53 66.79 67.88 68.30 68.39 67.61 66.13 67.78 68.81 69.38
38.83 37.79 28.36 21.44 21.43 27.42 38.05 31.14 36.67 45.47 47.20 46.55 47.00 45.93 47.19 48.56 48.77 48.52 49.02 49.11 50.84 51.23 52.08 52.18 53.00 54.43 56.38 58.14 57.82 57.81 56.62 58.05 59.26 60.02 61.17 61.05 62.55 64.94 66.77 65.45 63.53 63.00 65.94 67.95 68.37 69.24 68.35 69.53 69.09
39.92 34.28 39.48 32.80 33.74 27.90 31.20 36.90 43.30 46.30 46.44 46.21 45.74 45.32 44.80 46.00 47.94 48.58 49.81 49.74 49.94 50.72 51.14 51.53 51.47 52.55 54.73 56.44 56.77 58.19 59.32 59.11 58.00 58.34 59.24 60.37 60.94 62.62 63.86 65.61 64.01 64.85 66.18 69.21 68.94 68.20 68.85 69.02 69.15
41.56 43.19 33.97 31.98 26.82 22.85 29.27 32.08 35.13 41.06 43.60 46.41 45.43 44.83 44.84 45.17 47.22 48.36 49.09 49.78 49.94 50.85 51.76 51.99 52.52 52.72 53.03 53.73 54.39 57.37 58.89 60.01 59.43 59.32 59.19 59.40 60.05 62.13 63.24 62.94 65.80 67.47 68.75 69.01 65.32 68.29 69.26 69.59 68.73
36.48 34.97 37.36 35.57 32.27 24.52 23.18 28.62 40.50 41.41 43.05 44.56 44.99 46.68 44.06 45.15 46.08 46.87 48.10 49.51 50.27 51.46 50.60 51.71 52.19 52.96 53.52 54.02 55.01 55.27 55.91 56.93 58.19 60.52 60.37 60.33 60.36 62.15 63.36 63.40 63.46 64.57 66.78 70.60 69.44 70.48 71.33 70.69 70.98
39.77 37.57 35.55 30.87 26.53 30.68 28.27 28.83 43.72 43.20 44.15 45.80 44.99 47.15 47.03 48.75 46.58 47.13 47.74 48.26 48.79 48.89 49.71 51.07 53.08 52.81 52.97 54.25 54.83 55.87 56.71 57.02 56.90 57.85 60.03 60.26 59.77 60.60 62.27 63.76 64.61 65.69 66.18 68.37 71.80 71.16 71.89 71.42 71.00

GFSSGP_sfc_wetblb_072.txt.gz
Wetbulb
62.51 59.17 57.95 55.71 44.63 42.35 40.37 44.73 48.04 48.73 47.70 49.32 56.59 58.81 57.68 58.68 58.35 53.59 67.41 71.04 74.08 75.31 76.37 77.12 77.52 77.60 77.53 76.99 76.81 76.43 76.19 76.04 76.24 76.36 76.41 76.43 76.31 76.31 76.21 76.18 76.01 75.82 74.49 73.63 72.70 71.45 70.00 68.58 67.36
60.66 59.81 57.43 51.18 41.29 36.87 41.23 48.48 47.36 47.82 49.62 49.94 55.33 56.99 57.71 57.01 63.98 66.75 67.27 72.56 74.05 75.47 76.24 76.25 77.40 77.43 77.25 76.84 76.51 76.31 76.19 76.06 76.13 76.38 76.45 76.33 76.03 76.08 75.93 75.71 75.59 74.48 73.56 72.67 71.59 70.30 68.95 67.81 66.99
55.84 59.71 51.67 45.78 40.34 39.25 42.05 48.52 48.91 50.76 52.22 50.91 49.84 57.79 58.28 58.51 62.39 66.10 69.31 72.15 74.49 75.08 75.89 76.27 77.34 77.20 77.07 76.69 76.18 76.18 75.91 75.91 76.18 76.40 76.50 76.23 75.93 75.65 75.65 75.43 75.19 73.99 72.78 71.81 70.81 69.64 68.75 68.02 67.42
52.02 52.06 50.90 42.98 41.23 45.81 47.44 50.68 51.03 51.17 51.56 52.55 52.81 54.22 57.07 61.12 62.19 68.15 71.23 72.40 73.07 74.02 75.55 77.17 77.19 76.92 76.74 76.52 76.31 76.20 76.08 76.01 76.08 76.33 76.37 76.22 75.80 75.47 75.42 75.28 74.82 74.15 72.57 71.35 70.29 69.72 69.68 68.64 67.52
51.20 47.98 42.33 39.68 42.37 46.90 50.95 52.14 52.71 52.31 50.48 51.55 54.29 53.45 54.70 58.60 60.02 70.54 70.75 71.59 70.85 72.75 74.93 76.58 77.18 77.04 76.87 76.57 76.39 76.21 76.18 75.95 76.10 76.37 76.29 76.09 75.53 75.23 75.24 75.01 74.49 74.09 73.12 71.62 70.41 70.50 70.42 69.97 69.16
45.81 47.09 39.54 37.51 42.48 48.59 50.93 52.72 52.79 51.34 51.93 53.66 54.56 53.94 54.30 57.89 57.46 60.34 71.33 70.04 71.01 72.20 74.76 76.17 77.26 77.03 76.58 76.31 76.01 76.00 75.96 75.81 75.83 76.08 76.03 75.92 75.37 75.10 75.04 74.72 74.24 73.85 73.27 72.37 71.34 71.25 70.54 70.08 69.80
44.09 41.99 38.59 41.12 43.23 46.67 50.42 52.37 50.17 51.25 52.96 53.13 55.78 52.65 54.05 55.80 57.22 57.48 64.88 71.16 70.07 73.00 73.85 75.39 75.99 76.65 76.39 76.32 75.79 75.81 75.67 75.66 75.58 75.59 75.59 75.40 75.24 74.95 74.63 74.24 73.96 73.57 72.98 72.51 72.01 71.24 70.97 70.36 70.38
46.68 43.88 40.07 41.13 42.13 44.11 51.11 51.62 51.05 49.53 52.42 56.23 57.33 52.38 50.79 55.45 57.75 57.61 64.51 70.71 69.88 72.16 72.68 74.11 75.06 75.33 74.51 75.12 76.28 75.70 75.57 75.59 75.32 75.44 75.44 75.20 74.94 74.65 74.26 72.93 73.38 73.42 72.73 72.28 71.96 71.49 70.98 70.68 70.58
46.82 39.63 38.47 41.32 42.90 45.54 50.93 49.45 51.91 54.01 51.71 54.96 56.45 55.88 57.24 57.82 57.47 56.64 66.82 70.04 70.70 71.68 71.09 72.75 74.31 73.93 73.89 74.05 75.34 75.95 76.19 75.75 75.28 75.32 75.16 73.95 71.89 72.07 72.58 72.32 73.10 73.36 72.95 72.43 72.26 71.81 71.37 70.93 70.71
42.16 36.28 39.93 45.39 46.32 45.77 48.62 49.44 49.13 50.13 50.75 51.75 54.36 58.03 58.49 57.63 56.55 55.14 59.66 67.29 69.23 69.82 70.33 71.10 72.87 73.73 73.04 73.57 74.27 74.83 74.99 74.46 74.17 74.06 73.50 71.73 70.12 69.56 71.30 71.63 72.87 73.04 73.02 72.67 72.50 72.15 71.76 71.17 67.04
41.80 40.39 43.57 45.32 46.99 48.33 48.66 49.17 50.90 48.87 48.00 50.59 52.23 54.67 56.41 56.42 54.67 54.82 54.41 63.87 68.83 70.61 70.65 70.68 71.24 72.74 73.11 73.00 73.74 73.39 73.87 73.57 73.31 72.76 71.75 70.17 69.64 69.29 69.42 67.85 69.12 68.79 71.46 68.64 70.27 69.73 69.30 67.73 66.66
38.97 43.64 45.57 46.44 48.04 47.95 47.09 49.87 48.91 48.66 49.28 53.94 55.38 56.26 56.04 55.05 54.15 54.11 54.36 54.53 65.73 69.53 69.88 70.36 70.73 71.22 71.49 72.89 72.56 72.20 72.09 72.10 71.85 72.06 70.84 69.65 68.16 67.15 66.72 66.46 66.44 67.13 67.51 67.35 66.17 66.44 66.55 67.04 66.56
39.05 42.35 44.89 46.99 47.52 47.65 48.78 47.58 47.86 48.38 51.39 54.84 56.19 56.54 55.20 53.65 53.55 54.23 54.35 55.51 60.84 64.88 67.64 69.61 70.26 69.74 68.42 71.18 72.08 72.23 71.73 71.53 71.12 70.73 70.65 69.58 67.10 66.31 67.03 66.33 66.48 66.68 66.39 66.48 65.55 64.84 64.73 64.62 64.74
42.76 42.97 43.37 44.45 44.71 45.16 45.54 46.54 45.91 48.70 51.69 54.26 55.88 56.11 55.79 55.11 54.52 53.47 53.59 53.78 56.51 63.32 66.62 69.06 69.51 68.87 68.33 70.04 69.63 70.95 71.15 71.25 70.44 70.11 70.47 69.37 67.75 66.53 65.66 66.52 66.46 66.12 66.54 66.66 66.41 65.42 64.21 63.92 64.12
43.63 39.96 41.91 42.29 42.16 42.71 44.67 42.03 43.93 47.61 49.90 49.47 51.60 53.29 55.65 55.11 55.69 54.98 55.91 55.66 60.60 63.18 65.41 68.13 69.01 68.94 68.77 70.08 68.94 68.53 69.48 69.62 69.30 69.62 69.43 69.83 67.13 66.03 67.55 66.92 67.53 67.56 67.64 67.15 66.24 65.73 65.31 64.45 65.37
39.19 38.12 32.89 39.16 42.91 44.27 42.70 38.67 44.92 46.39 46.52 47.28 48.45 51.58 53.09 53.81 54.36 54.08 54.98 58.14 59.80 61.83 63.87 64.80 69.97 69.28 69.97 70.24 70.14 69.05 68.77 68.89 69.34 69.31 69.31 70.16 69.67 67.11 65.59 68.80 68.35 68.33 68.58 68.04 66.69 66.61 65.68 65.05 64.42
34.67 31.00 33.84 37.51 42.20 42.11 40.79 39.80 44.56 46.25 46.22 45.87 46.60 47.36 48.85 49.81 51.94 53.50 56.31 57.66 57.90 59.30 61.50 63.63 66.47 69.74 69.48 70.64 70.88 70.35 68.83 68.81 69.12 69.36 69.24 69.81 70.19 70.73 68.22 67.55 68.46 68.68 68.04 67.33 67.18 66.22 65.33 63.94 63.88
31.35 32.03 35.30 35.95 41.70 40.92 40.22 40.09 44.42 46.53 45.35 45.46 44.51 46.80 48.14 48.17 49.50 53.18 57.11 58.00 57.83 58.32 59.91 62.05 65.22 67.94 69.85 69.99 70.60 70.51 70.29 69.97 68.95 69.04 69.75 69.98 69.91 70.18 71.05 70.08 68.65 68.32 67.97 67.37 66.26 66.04 65.83 64.73 63.45
38.41 36.89 36.06 39.75 43.11 40.22 39.53 39.87 41.93 45.23 44.00 43.14 43.32 45.68 46.42 47.87 49.76 53.69 57.08 57.76 57.62 57.31 57.24 59.57 64.83 67.37 68.59 69.11 66.99 66.81 68.74 68.68 68.92 68.92 70.00 71.24 70.63 70.36 70.50 70.44 69.46 67.96 67.18 67.03 66.04 65.34 64.70 63.88 66.08
39.82 37.27 36.60 39.50 42.71 40.52 39.37 39.13 41.43 43.65 43.47 43.68 44.92 44.61 44.85 44.73 47.61 53.19 55.03 56.78 57.58 57.16 56.97 58.84 60.96 63.76 67.24 68.59 68.10 66.84 66.34 67.37 68.41 68.60 68.61 68.64 71.13 71.59 70.48 69.63 68.83 68.47 68.07 67.20 66.00 64.55 64.02 64.33 65.21
39.64 37.79 36.29 36.80 40.90 40.92 38.41 36.52 38.53 43.17 44.37 45.00 45.36 45.98 46.23 46.14 46.22 51.55 54.41 54.83 56.30 56.10 55.37 56.51 58.06 59.60 60.51 63.60 67.24 66.03 65.38 66.08 65.86 66.86 67.84 68.34 68.53 69.95 71.23 70.30 69.50 68.52 68.21 68.07 66.45 65.40 63.71 63.22 64.13
35.14 41.04 40.79 40.06 35.78 29.79 40.19 28.12 35.75 40.09 41.57 43.03 44.19 43.39 44.61 46.51 47.32 50.42 52.88 52.76 55.11 54.81 55.46 56.03 56.51 56.49 57.21 58.09 60.53 64.54 63.15 61.49 62.96 65.10 66.46 67.20 68.05 67.76 69.05 69.86 70.15 69.39 68.56 68.20 67.16 66.85 65.68 63.31 63.77
38.85 42.87 40.59 39.25 33.91 30.65 34.40 29.54 34.27 38.29 38.71 40.28 42.94 43.77 44.61 46.04 48.05 47.78 50.43 54.41 54.65 54.92 54.11 54.60 55.22 55.14 55.54 56.27 58.90 60.08 60.54 62.78 63.97 64.68 64.30 65.35 67.30 67.72 68.23 68.39 69.10 69.42 68.99 68.70 67.70 65.84 65.15 64.78 64.98
45.11 40.36 37.04 35.13 31.32 25.05 33.13 30.88 32.42 35.11 37.46 39.79 43.37 46.20 46.43 45.79 46.65 48.19 51.66 51.55 51.73 53.31 54.15 54.56 54.59 54.44 55.42 55.71 55.40 56.23 57.48 58.81 60.98 61.53 62.19 64.42 66.18 66.03 67.45 67.57 67.16 67.77 67.79 67.14 67.18 66.40 65.34 64.77 66.03
42.32 36.82 27.76 23.05 22.85 25.46 34.33 32.39 35.06 39.64 43.50 44.16 44.95 45.18 45.44 46.39 47.65 48.75 50.14 49.70 48.63 50.18 51.88 52.95 54.09 53.64 54.69 55.19 55.14 55.73 56.25 56.71 56.93 58.62 60.82 62.03 63.47 63.79 65.42 67.24 66.99 67.00 67.63 68.21 67.14 66.00 65.65 66.25 66.50
37.61 35.11 26.96 23.65 20.53 26.69 35.42 29.22 33.47 42.99 45.75 46.48 47.36 44.42 45.45 46.95 48.33 49.01 49.18 48.78 48.69 50.00 49.74 52.40 51.90 52.07 53.76 54.28 54.22 54.62 55.16 54.73 56.31 57.69 58.33 58.59 60.11 62.14 64.43 66.01 66.73 67.39 67.64 67.82 67.58 67.22 67.28 66.92 66.51
38.39 32.79 37.00 32.27 33.27 29.35 30.26 34.18 39.78 43.26 43.99 46.07 46.63 46.18 43.39 45.29 46.59 48.07 47.11 47.08 48.35 48.09 50.47 51.81 52.10 52.42 53.08 54.88 55.83 55.45 55.34 55.27 55.79 56.91 56.62 57.68 60.15 60.81 60.75 63.23 64.68 64.10 64.08 64.99 65.90 65.32 65.46 66.13 65.91
41.27 41.84 29.56 34.18 25.90 24.35 27.85 29.92 30.78 38.05 41.15 44.21 44.99 44.96 45.78 46.51 46.62 46.89 46.98 46.93 48.17 48.44 50.41 50.04 50.94 50.39 51.48 52.73 54.02 54.69 55.41 57.82 57.62 56.55 56.94 57.11 57.36 58.75 59.37 61.09 64.62 64.52 65.17 64.90 65.79 66.53 66.76 63.29 63.91
37.02 34.96 34.63 34.16 33.74 27.25 23.98 26.05 37.94 39.08 41.31 43.49 45.10 46.95 44.97 46.12 46.58 47.25 46.13 46.74 47.43 47.86 48.69 49.07 49.08 49.65 50.13 50.26 50.56 50.74 52.43 54.28 55.27 57.01 58.43 57.54 57.84 58.84 60.23 61.07 61.98 63.23 63.80 65.19 66.61 66.81 66.39 65.36 64.15
39.57 36.25 35.83 29.28 28.24 31.92 29.52 27.28 40.94 39.73 41.70 44.21 44.90 47.36 47.36 46.50 45.85 46.55 48.14 48.00 47.47 46.05 47.83 49.97 49.72 49.95 50.80 51.24 51.72 52.53 53.39 54.17 53.88 54.29 55.24 58.24 58.59 59.18 59.22 60.38 61.26 62.01 63.34 63.65 66.06 67.08 66.12 64.97 64.10

GFSSGP_sfc_wetblb_075.txt.gz
Wetbulb
60.81 57.58 56.80 53.98 44.61 42.54 38.76 42.40 46.23 46.88 46.53 53.50 57.38 57.03 57.35 58.05 56.70 52.23 67.02 70.78 74.35 74.60 75.67 76.08 77.05 77.43 77.15 76.75 76.32 76.02 76.26 76.34 76.24 76.11 76.27 76.39 76.42 76.54 76.36 76.28 76.19 75.57 74.65 73.60 72.79 71.75 70.45 69.08 68.11
59.78 57.70 55.73 49.69 40.87 38.12 41.57 45.44 45.95 46.33 48.77 49.58 53.18 55.03 56.19 56.34 64.39 65.88 67.09 73.05 74.35 74.68 75.66 75.90 77.24 77.22 77.05 76.54 76.01 75.86 75.81 75.94 75.99 75.99 76.04 75.99 75.96 76.01 76.06 75.78 75.62 74.47 73.76 72.93 71.87 70.56 69.03 67.93 67.51
53.04 58.12 50.69 45.14 39.11 38.52 42.09 48.38 48.34 50.86 50.62 49.79 51.17 56.65 57.10 57.39 64.84 66.56 69.35 73.46 74.41 74.28 75.31 75.87 77.24 76.96 76.87 76.19 76.06 75.76 75.64 75.74 75.89 75.99 75.87 75.69 75.69 75.66 75.50 75.36 74.90 73.75 73.05 72.14 70.97 69.58 69.07 68.33 67.68
51.01 51.73 49.40 42.16 41.66 45.40 45.92 49.42 51.14 51.42 51.91 52.14 53.32 52.81 55.62 58.71 58.76 66.48 71.99 73.74 73.89 74.30 75.01 76.66 76.83 76.78 76.66 76.42 76.16 75.75 75.56 75.74 76.04 75.94 75.96 75.69 75.43 75.34 75.27 75.13 74.67 74.01 72.45 71.45 70.48 69.82 69.67 69.12 68.45
49.82 47.67 41.56 39.15 42.19 46.71 49.56 51.69 52.94 51.40 50.85 51.36 53.43 51.73 53.50 56.86 67.58 70.29 71.42 72.76 72.73 73.96 74.78 75.99 76.76 76.71 76.54 76.22 75.91 75.73 75.61 75.55 75.90 75.98 75.66 75.26 75.12 75.11 74.96 74.66 73.98 73.37 72.41 71.03 69.88 69.90 70.17 69.82 69.08
45.13 45.49 38.12 36.78 41.97 47.87 49.46 51.15 51.90 51.64 52.09 53.02 52.31 52.49 52.54 57.11 63.57 68.74 70.53 70.24 72.68 73.52 74.68 75.25 76.59 76.50 76.20 76.03 76.05 75.55 75.27 75.41 75.63 75.68 75.56 75.22 74.91 74.79 74.70 74.48 74.02 73.58 72.74 71.67 70.37 70.20 69.85 70.15 69.60
43.86 40.47 38.07 38.69 41.84 44.69 49.01 51.18 49.83 50.50 50.96 50.77 54.12 51.54 52.93 54.25 55.95 67.40 69.57 69.07 71.28 73.27 74.30 74.62 75.25 75.82 76.21 75.74 75.74 75.58 75.13 75.15 75.16 75.17 75.28 75.11 74.92 74.75 74.53 74.22 73.91 73.47 72.83 72.19 71.37 70.55 70.38 69.92 69.72
45.59 41.24 37.47 40.06 41.01 42.31 49.12 50.21 48.81 50.03 51.41 55.06 57.31 51.18 50.06 53.67 56.31 61.79 69.53 67.98 69.50 72.44 74.06 74.02 74.30 75.14 74.44 74.59 75.83 75.50 75.33 74.97 74.95 75.06 75.09 74.73 74.54 74.37 74.16 73.03 73.15 73.20 72.61 71.92 71.45 70.78 70.46 70.09 70.07
46.83 38.54 35.29 39.52 41.33 44.69 48.34 46.22 49.84 52.93 50.80 52.52 54.30 54.66 56.19 56.55 60.35 66.49 67.31 68.65 70.11 70.79 72.75 73.37 73.43 73.98 73.52 74.10 74.85 75.25 75.57 75.31 74.92 74.91 74.98 73.63 72.32 72.22 72.30 72.19 72.83 73.29 72.78 72.21 71.92 71.45 70.86 70.61 70.32
41.95 35.94 38.71 44.15 45.79 44.48 46.78 46.32 46.56 47.64 48.60 49.00 50.50 56.10 56.88 56.32 56.43 66.26 66.76 67.17 68.58 69.35 71.14 72.65 72.76 73.12 72.05 74.03 73.91 73.86 73.94 73.79 73.37 73.26 73.08 71.70 70.46 70.09 71.15 71.51 72.78 73.12 72.82 72.48 72.18 71.79 71.47 70.73 65.98
40.90 38.56 41.49 43.45 45.70 46.87 46.50 47.19 48.77 46.52 45.45 47.43 49.30 52.79 55.54 54.49 53.98 63.16 66.85 68.06 68.48 69.69 70.84 71.77 72.06 72.68 71.67 72.11 73.21 73.17 73.78 73.31 73.37 72.60 72.06 70.01 69.73 69.64 69.89 67.88 69.46 68.22 71.34 68.18 69.98 69.06 68.47 66.74 65.89
38.33 42.55 43.47 44.17 45.53 45.89 44.76 47.68 47.26 47.45 48.42 50.18 51.05 53.38 55.59 54.17 52.73 54.77 60.76 66.43 68.65 69.22 69.82 71.54 71.94 71.67 71.46 71.47 72.68 72.47 72.49 72.29 71.86 72.42 70.75 69.24 68.04 66.89 66.60 65.92 65.34 65.90 66.33 66.36 65.91 66.40 65.96 66.07 66.41
38.59 41.06 43.08 44.43 44.20 44.16 45.99 45.15 45.50 46.71 49.81 51.22 51.71 52.63 54.70 53.78 52.95 52.57 55.26 61.44 68.83 68.41 69.38 70.33 71.85 71.65 71.75 71.92 72.11 71.92 71.87 71.94 71.98 71.74 70.73 69.35 66.84 66.10 65.45 64.93 64.76 64.92 65.28 65.46 65.24 64.63 64.43 64.41 64.69
40.77 41.56 41.96 42.58 42.86 42.58 43.27 45.03 44.43 46.81 49.24 49.81 50.75 53.85 53.69 53.63 53.33 52.45 51.95 56.22 65.38 67.82 68.30 69.80 70.61 71.53 71.20 71.42 71.31 71.25 71.66 71.72 71.29 71.21 70.94 69.66 67.59 64.79 64.84 65.05 64.68 64.92 65.58 65.27 65.43 64.74 64.16 63.68 63.69
41.77 38.24 40.24 40.57 40.81 41.05 42.70 40.75 42.53 46.15 48.43 48.18 48.65 50.29 53.70 53.96 54.40 53.95 53.49 55.77 62.59 63.81 66.74 68.61 69.41 70.45 69.97 71.28 70.92 70.82 71.34 71.26 70.81 70.55 70.55 70.26 67.72 65.67 64.30 64.85 65.28 65.56 65.65 65.65 65.41 65.32 64.69 63.59 63.81
37.36 36.33 31.58 36.87 40.65 42.44 41.79 37.09 43.49 45.48 46.06 46.38 47.34 47.92 49.38 50.98 54.13 54.03 54.45 53.86 58.06 61.72 65.35 67.52 69.62 68.99 68.62 70.14 70.39 70.20 70.43 70.48 70.53 70.27 70.05 70.20 69.02 66.72 65.47 64.94 65.70 67.05 66.63 66.51 66.05 65.89 65.18 64.76 64.59
32.95 29.07 31.26 35.27 40.12 40.49 39.74 37.69 42.99 45.05 44.22 43.66 44.73 46.53 48.51 49.68 51.73 53.46 54.06 55.40 61.24 62.12 64.37 66.43 67.44 67.76 67.41 68.39 69.41 69.34 68.14 68.00 68.84 68.98 68.90 69.49 69.79 68.08 65.56 66.06 66.86 66.85 66.90 67.17 66.98 66.03 65.43 64.23 63.57
29.87 30.16 33.62 33.33 38.64 38.85 38.03 38.64 41.89 43.65 43.47 43.53 44.62 44.90 46.31 47.35 49.07 51.53 53.20 56.05 58.58 59.97 62.28 64.76 67.74 67.50 66.76 68.64 68.86 68.18 67.75 68.69 68.30 67.82 68.36 68.17 69.05 69.07 67.52 65.88 65.71 67.28 66.81 66.51 66.02 65.58 65.05 64.75 63.67
36.32 34.54 33.89 37.86 41.60 37.81 38.59 39.07 40.54 42.23 42.18 42.37 42.63 42.38 44.92 46.49 48.80 50.56 54.92 56.40 56.72 57.62 60.17 62.76 65.52 67.39 68.88 68.36 67.50 67.25 66.99 67.37 67.91 68.76 68.81 68.58 68.74 69.04 69.24 68.84 68.34 67.45 67.25 67.09 66.90 65.68 64.99 64.08 65.01
37.18 34.81 34.79 38.59 41.16 38.09 37.79 37.26 40.72 40.97 41.79 42.45 42.32 42.19 43.97 44.02 45.18 51.86 55.10 55.64 55.26 55.30 56.71 60.57 64.78 65.80 67.55 68.09 67.30 66.65 66.17 66.73 67.97 68.09 68.97 70.36 69.81 68.95 68.93 69.07 68.71 68.64 67.52 66.52 66.02 64.83 63.72 63.57 65.16
36.65 34.58 35.50 35.74 39.50 39.58 36.81 34.98 37.28 40.80 42.49 44.00 44.07 43.16 43.84 44.69 44.93 49.11 53.53 54.56 54.55 53.96 55.99 59.17 61.34 62.75 62.89 65.68 66.14 64.74 64.79 65.13 65.15 65.85 66.01 67.05 69.57 70.80 69.64 69.16 68.73 68.60 68.51 67.91 66.88 65.69 64.28 63.40 63.46
33.59 40.13 39.64 37.92 34.72 29.19 37.36 28.53 35.54 37.76 39.44 41.13 42.22 41.98 43.18 44.22 45.39 46.73 52.61 52.90 54.02 54.56 54.39 56.50 58.06 57.72 57.96 61.38 63.76 64.09 63.63 62.48 63.18 63.81 65.68 65.75 67.28 67.59 70.06 70.07 69.63 68.94 68.22 67.65 66.77 67.00 65.70 64.12 63.51
38.33 42.58 38.62 37.47 33.72 29.37 31.85 27.08 32.21 36.46 36.88 39.32 41.10 42.70 42.75 42.95 44.41 45.31 50.39 54.27 54.74 53.25 53.05 54.08 54.38 54.22 54.92 56.79 57.64 59.76 60.49 62.67 62.97 63.29 63.25 63.12 65.12 66.45 66.85 67.56 67.19 68.46 68.42 68.42 67.46 65.98 65.38 64.08 63.50
44.16 39.55 36.45 32.96 29.84 23.90 31.40 29.51 31.29 35.63 36.51 38.83 42.27 45.02 45.65 46.18 45.28 45.05 48.31 53.01 52.94 52.58 52.51 52.47 52.63 52.46 53.26 54.04 56.32 57.59 57.71 57.30 59.19 60.25 61.04 61.73 63.37 64.23 65.84 66.61 66.65 67.02 66.30 64.95 65.17 67.50 66.23 64.60 64.00
40.22 35.41 25.42 23.79 22.71 26.02 32.96 29.67 33.65 37.46 40.82 42.22 43.07 44.14 44.33 45.26 45.84 44.08 48.37 51.84 52.55 51.53 51.43 52.39 52.00 52.05 53.20 53.89 53.74 53.78 54.40 55.43 56.04 56.43 57.63 58.98 60.68 61.93 63.27 64.38 65.29 65.34 65.93 67.15 67.54 67.15 66.75 65.16 64.56
36.49 35.22 27.30 24.16 23.55 25.40 33.22 27.36 32.75 40.68 43.91 44.27 44.40 42.83 43.31 42.99 43.20 45.15 49.68 52.61 52.65 51.56 51.66 52.48 51.68 51.10 52.55 53.30 53.27 53.98 54.22 54.20 54.38 55.32 57.21 57.42 57.66 59.68 61.31 62.51 64.18 65.44 66.72 66.83 67.19 66.51 65.78 65.47 65.42
36.48 32.36 39.56 31.21 30.98 27.01 28.01 32.97 39.21 42.24 41.78 43.57 43.53 44.15 43.13 43.33 44.31 44.21 45.52 46.21 48.74 50.02 50.27 51.40 51.37 50.58 52.40 53.22 52.63 52.49 52.73 52.81 53.03 53.91 54.78 55.47 56.83 59.83 59.70 59.43 60.71 62.87 64.12 65.66 65.34 65.19 65.59 65.93 66.29
37.89 40.20 31.83 32.77 24.24 22.37 26.48 28.07 30.17 36.87 39.68 41.97 42.11 40.70 42.93 44.01 45.19 45.06 45.51 46.24 45.92 46.30 49.52 49.72 51.39 51.08 51.65 51.78 52.93 53.90 53.85 54.08 53.98 54.19 54.38 54.42 55.58 56.60 57.63 57.89 59.30 61.77 62.57 62.93 62.58 63.81 64.61 64.47 64.32
33.20 34.69 36.85 35.15 32.58 22.76 20.34 26.52 38.35 39.31 40.63 40.89 41.94 43.53 42.90 44.32 44.83 45.68 46.39 46.88 45.96 45.65 45.81 47.71 49.11 49.94 49.20 50.87 51.93 53.06 53.34 53.40 54.97 55.22 54.79 54.80 55.15 55.43 56.76 58.17 59.04 59.68 60.58 61.75 62.94 64.48 65.32 65.31 65.80
38.47 35.13 36.16 29.06 27.87 31.98 29.16 26.54 41.36 41.54 41.81 40.94 41.77 44.47 46.13 45.08 46.37 45.64 46.98 47.09 47.22 45.50 45.36 46.82 47.41 46.42 47.94 49.61 49.25 49.38 49.33 50.44 51.01 51.80 52.85 53.77 55.02 56.43 57.56 58.28 59.17 59.91 60.34 60.23 60.36 61.48 63.79 64.93 64.25

GFSSGP_sfc_wetblb_078.txt.gz
Wetbulb
60.40 56.33 56.61 52.45 43.97 42.63 37.66 41.35 44.82 45.71 47.40 49.41 51.81 55.63 56.06 57.05 55.88 51.13 66.73 70.91 72.96 73.57 75.55 76.47 77.01 77.14 77.14 76.79 76.66 76.63 76.50 76.53 76.64 76.49 76.34 76.24 76.36 76.41 76.38 76.32 76.25 75.74 74.80 73.67 72.68 71.82 70.67 69.88 69.86
56.32 56.55 54.60 48.37 40.88 37.87 40.63 44.90 43.91 45.61 49.58 50.09 48.75 53.44 55.11 54.78 64.74 65.59 66.66 73.06 73.20 74.02 74.80 75.32 77.06 76.89 76.84 76.61 76.32 76.29 76.32 76.35 76.31 76.26 76.19 76.16 76.33 76.35 76.20 76.15 75.91 74.88 73.98 73.11 72.22 70.78 69.38 68.90 68.64
52.14 56.62 49.79 44.03 38.59 38.32 41.12 47.48 48.31 48.79 52.36 48.86 49.03 55.15 56.05 55.79 61.66 66.23 68.97 73.39 73.68 73.96 74.96 74.75 76.95 76.71 76.64 76.28 76.07 75.88 76.01 76.07 76.02 76.08 76.06 76.05 76.12 75.84 75.79 75.63 75.44 74.07 73.27 72.54 71.27 69.86 69.51 69.13 68.80
50.40 51.06 48.29 42.30 39.74 44.72 45.00 48.14 51.38 50.86 51.84 51.32 52.89 51.28 54.06 57.82 57.62 67.11 72.90 73.86 73.27 73.80 74.45 76.24 76.85 76.68 76.38 76.08 75.95 75.64 75.82 75.77 75.70 75.80 75.88 75.67 75.57 75.28 75.26 75.12 74.79 74.05 72.65 71.53 70.34 69.56 69.72 69.41 68.87
50.42 47.37 40.57 38.83 41.32 46.09 49.02 50.47 51.48 50.61 50.40 50.01 51.72 50.56 51.90 56.75 69.21 71.18 72.81 73.34 72.29 72.85 74.27 76.07 76.75 76.52 76.43 76.11 75.76 75.52 75.57 75.52 75.60 75.70 75.60 75.52 75.26 74.95 74.83 74.65 74.07 73.71 72.86 71.35 69.99 69.77 70.31 69.72 69.56
45.05 44.98 37.33 36.33 41.84 47.52 48.87 50.22 51.20 50.86 50.16 51.69 50.72 50.86 51.17 55.71 67.41 69.84 72.18 71.83 72.93 72.77 74.16 74.96 76.26 76.29 75.79 75.93 75.65 75.29 75.16 75.34 75.39 75.36 75.19 74.96 74.77 74.65 74.61 74.25 73.91 73.52 72.78 71.86 70.62 70.54 69.98 69.12 68.70
43.72 40.62 36.80 38.32 41.75 44.64 48.05 50.37 49.11 49.10 49.39 51.24 51.79 50.28 51.93 54.11 56.50 69.08 70.73 71.13 72.97 73.48 73.65 74.07 74.66 75.58 75.97 75.71 75.40 75.00 74.90 74.90 74.90 74.84 74.77 74.60 74.63 74.52 74.45 74.01 74.00 73.51 72.80 72.13 71.61 70.62 70.02 69.26 69.10
43.96 41.54 36.59 38.40 40.81 42.34 48.28 49.25 48.65 49.17 50.06 53.31 54.76 49.45 48.76 54.06 56.94 66.59 67.99 69.71 71.43 73.14 72.93 73.30 73.76 74.55 74.26 74.49 75.54 75.17 74.82 74.74 74.77 74.75 74.75 74.24 74.28 74.25 74.20 73.16 73.34 73.31 72.72 72.25 71.54 70.70 70.26 69.66 69.45
45.69 37.23 35.04 38.30 40.92 43.37 47.11 45.09 47.21 51.00 49.61 50.44 51.47 50.97 53.65 56.50 64.04 66.33 65.44 68.11 70.28 72.58 72.36 72.75 72.90 73.27 73.89 73.79 74.66 75.09 74.85 74.82 74.60 74.76 74.63 73.40 72.43 72.63 72.92 72.46 72.89 73.11 72.67 72.05 71.61 71.24 70.53 70.16 70.01
41.02 35.00 38.83 42.85 44.41 43.95 44.84 44.53 44.58 45.89 46.77 47.93 49.22 52.66 55.34 57.72 64.36 65.44 64.74 65.85 68.07 70.22 71.42 72.19 72.36 72.53 72.93 73.62 73.59 73.49 73.38 73.69 73.17 73.10 73.17 72.00 70.89 70.93 71.32 71.95 72.75 73.20 72.76 72.25 71.88 71.39 71.00 70.63 67.25
38.68 36.51 40.42 42.94 45.59 45.98 44.29 43.93 47.42 45.05 44.07 46.17 47.50 50.11 52.99 54.53 55.55 64.77 65.34 66.37 67.21 69.51 71.03 71.74 72.02 72.40 72.28 72.64 72.89 73.06 73.18 73.23 72.71 72.53 71.68 70.33 69.87 70.54 70.57 69.31 70.97 70.27 71.80 69.31 70.73 69.83 69.22 68.00 66.73
37.60 41.59 42.92 43.09 44.82 45.11 44.46 46.16 45.54 46.22 46.24 49.10 49.61 50.26 50.83 52.30 53.43 61.08 65.43 66.14 66.92 68.67 70.47 71.66 71.73 72.03 71.61 72.27 72.35 71.89 72.20 72.45 72.20 71.70 71.72 69.08 68.27 67.95 68.27 67.80 67.35 67.60 67.50 67.46 66.91 66.96 67.28 67.19 67.16
37.01 39.91 41.70 43.27 41.97 41.51 43.82 42.96 43.96 45.08 47.92 49.24 49.63 50.37 49.61 51.83 52.52 55.11 62.20 66.65 67.84 68.03 69.75 71.07 71.56 71.34 71.72 71.20 72.55 71.71 71.32 71.61 71.27 71.37 71.30 70.12 68.18 67.46 67.12 66.50 65.49 65.67 66.05 66.12 65.88 65.91 65.96 65.85 65.91
39.70 39.58 40.54 41.45 41.94 41.87 41.54 42.84 41.87 44.16 47.70 47.95 48.10 47.94 48.67 51.54 52.62 52.22 53.85 61.26 67.57 68.46 68.55 70.85 71.02 71.10 71.70 71.16 71.30 71.35 71.48 71.59 71.49 71.34 71.23 70.52 69.05 67.12 66.27 65.69 65.07 64.79 65.43 65.85 66.16 65.80 65.81 65.38 65.44
40.09 36.69 39.22 39.66 40.65 41.36 42.23 40.19 40.84 44.71 45.87 45.89 46.93 47.70 49.43 53.05 53.56 53.28 53.71 57.68 67.36 68.26 68.73 69.72 70.50 70.83 71.12 71.06 71.02 70.95 71.24 71.86 71.07 71.01 71.16 70.87 69.19 66.97 65.99 65.88 65.05 65.19 65.99 66.43 66.49 66.22 66.32 65.68 65.61
35.64 34.55 30.74 36.90 39.42 42.06 39.76 36.92 42.52 44.48 43.83 44.28 46.13 46.67 47.20 47.54 53.26 53.19 53.37 54.88 63.98 67.11 67.24 68.64 70.30 70.43 70.62 70.70 70.47 70.57 70.81 70.99 70.85 71.17 71.09 71.05 70.39 68.28 66.23 65.26 65.63 66.42 66.38 66.47 66.51 66.27 65.80 65.98 66.06
31.54 27.01 28.61 34.45 38.12 38.59 37.32 35.66 41.77 44.49 42.88 42.57 43.56 44.86 46.00 47.47 48.35 52.80 53.21 53.21 57.45 63.21 66.84 67.84 68.87 69.20 69.63 70.24 70.21 70.12 70.25 70.68 70.52 69.73 69.49 69.97 70.36 69.77 67.51 66.44 65.23 66.60 66.93 67.05 66.95 67.04 67.11 66.71 66.23
28.54 28.69 31.21 32.07 37.68 37.47 36.76 36.87 40.27 42.44 42.34 42.48 41.82 42.67 44.23 45.66 47.58 49.72 53.41 53.46 54.89 60.22 64.29 67.00 68.20 68.39 68.46 68.67 68.31 67.79 68.36 69.17 69.63 69.24 68.66 68.81 69.23 69.77 67.49 66.30 65.97 67.17 66.47 66.54 67.21 67.43 66.91 66.37 65.66
34.35 32.20 31.91 35.67 40.16 36.03 36.27 37.67 39.02 41.05 40.70 40.63 41.97 41.52 41.97 43.53 47.50 48.04 49.90 53.04 55.99 59.11 61.65 64.08 65.94 66.43 66.92 66.95 67.19 66.47 66.22 67.28 67.55 68.32 68.73 68.39 68.22 69.14 68.93 67.72 66.07 66.28 66.68 67.33 67.76 67.48 67.19 66.46 66.42
35.25 32.83 32.50 36.05 39.57 36.84 36.05 36.29 38.90 39.25 40.23 41.01 41.35 42.20 41.64 42.08 44.31 47.11 51.12 53.73 55.79 58.72 60.35 62.35 65.59 66.09 66.36 67.65 68.03 67.73 67.15 66.65 67.10 67.84 68.49 68.88 68.56 68.67 68.92 68.58 68.37 67.90 67.17 67.87 67.70 67.13 65.75 65.84 66.14
34.53 32.45 33.12 33.84 37.91 37.58 35.69 34.80 36.31 39.37 40.93 42.94 43.27 42.96 42.72 42.99 43.14 44.88 50.56 53.23 53.96 55.72 57.83 61.65 64.66 66.50 66.97 66.94 65.81 65.22 65.67 66.21 65.63 66.94 67.57 68.42 69.10 69.54 69.10 68.89 69.28 69.20 69.71 68.32 67.60 67.04 65.63 65.50 65.36
32.07 38.15 38.27 37.33 33.19 28.22 35.87 28.25 35.37 36.85 38.15 40.48 41.85 41.16 41.55 42.40 43.67 44.67 46.73 52.27 53.28 54.04 55.18 59.43 62.65 63.88 65.41 66.64 65.88 65.30 63.91 63.09 65.69 66.44 67.75 67.62 68.15 68.67 69.88 69.07 68.14 68.88 68.61 67.77 67.82 68.29 67.64 65.42 65.21
36.84 41.31 38.57 36.27 32.05 28.06 30.56 26.31 32.78 35.05 35.02 37.38 40.69 42.49 42.10 43.46 44.10 45.20 45.42 50.05 53.61 54.10 53.63 57.04 59.70 59.48 60.63 63.65 65.39 64.79 62.33 63.17 63.44 64.50 64.62 65.20 66.31 67.10 68.02 69.27 68.97 68.67 68.88 68.70 68.25 66.92 66.63 65.90 65.71
42.83 38.33 36.19 31.49 28.75 24.41 31.96 29.73 32.43 35.94 35.39 37.15 39.85 42.09 44.87 44.67 44.59 44.08 46.26 47.27 52.02 52.56 52.43 53.97 55.17 54.62 55.51 56.72 58.00 59.98 61.11 60.93 61.21 61.79 62.66 63.34 64.52 65.47 66.56 66.99 67.01 67.24 66.81 66.22 65.81 66.80 65.84 63.61 63.79
38.97 33.25 26.86 23.58 22.22 25.51 32.01 28.05 33.51 37.40 39.66 39.16 40.04 42.57 42.93 42.93 43.19 44.26 42.75 44.19 49.46 51.47 52.19 52.23 52.06 51.92 52.87 54.58 56.40 57.27 57.54 57.43 58.02 58.98 59.59 60.67 62.33 63.93 65.18 66.43 66.56 67.15 67.46 66.70 65.81 64.70 64.02 64.63 64.06
35.18 33.82 25.98 20.35 21.74 25.54 32.17 28.21 31.85 39.71 42.59 43.22 43.64 42.58 43.26 43.15 42.68 43.52 44.04 45.41 49.40 52.41 52.83 53.24 51.36 51.66 52.73 53.52 53.76 54.17 54.81 55.35 55.96 56.37 57.22 58.32 60.12 61.65 63.33 63.79 65.11 66.72 67.10 67.19 67.93 68.29 67.08 65.76 65.59
34.61 30.76 34.21 25.27 29.61 27.52 27.47 31.26 37.14 39.99 41.56 43.01 42.55 43.33 42.55 42.89 43.74 43.22 44.88 45.10 49.00 51.07 51.95 52.38 50.75 51.21 52.53 53.28 53.03 53.68 54.24 54.51 54.41 55.48 56.70 56.68 57.68 59.48 62.11 63.57 64.30 65.12 66.11 67.23 67.26 67.19 66.74 66.13 66.25
36.61 38.70 26.27 31.04 23.60 23.43 26.01 27.10 28.71 35.00 38.21 40.59 41.41 41.30 42.32 43.42 44.36 45.21 45.38 45.26 46.17 47.16 47.99 49.89 50.88 50.78 52.41 52.48 52.56 53.14 53.28 54.02 54.30 54.30 55.10 56.06 57.01 58.80 59.37 59.51 61.04 62.95 63.97 64.76 65.35 65.10 65.44 65.30 65.83
31.25 31.17 33.17 34.65 31.76 25.56 24.19 25.62 37.22 37.32 39.48 40.45 40.49 41.68 41.62 42.41 44.36 45.03 46.12 47.23 47.17 45.79 47.22 48.89 49.36 49.01 49.77 51.18 52.16 53.18 53.42 54.34 54.75 55.13 55.73 55.95 56.67 57.09 57.79 58.74 59.62 60.46 61.60 63.38 63.58 63.71 64.30 64.87 65.45
33.72 31.44 31.84 24.07 23.01 29.38 29.42 27.74 40.33 39.03 39.56 40.97 41.76 42.93 43.33 43.33 44.53 45.99 48.04 48.51 48.54 48.21 47.47 46.87 48.47 48.92 48.76 49.35 51.58 52.68 53.72 53.73 54.23 55.15 55.71 55.83 56.13 57.17 58.08 59.06 59.88 60.61 60.96 60.84 60.89 61.45 63.07 63.55 64.12

GFSSGP_sfc_wetblb_081.txt.gz
Wetbulb
63.38 58.05 62.00 58.85 51.16 50.77 47.02 48.19 51.44 52.24 52.89 55.40 54.82 60.72 60.93 62.07 60.49 58.44 71.51 73.31 73.52 75.53 77.10 76.94 77.09 77.22 77.65 77.52 77.41 77.29 77.04 76.97 76.92 76.82 76.49 76.41 76.58 76.76 76.55 76.62 76.28 76.09 74.96 73.96 72.86 72.13 71.59 72.07 72.89
58.69 60.25 59.70 55.59 48.76 45.01 47.68 49.96 50.14 53.25 55.34 55.57 53.96 57.51 59.53 59.79 66.30 68.62 70.26 73.45 74.33 76.06 77.09 76.59 76.96 77.12 77.32 77.19 76.88 76.75 76.96 76.79 76.71 76.69 76.56 76.41 76.41 76.35 76.55 76.32 76.16 75.28 74.36 73.44 72.36 71.26 70.27 70.39 70.85
55.61 59.40 56.13 51.93 47.89 44.10 46.16 50.79 52.28 54.96 55.91 56.13 55.83 58.81 59.40 59.80 62.33 69.48 72.38 74.09 74.87 75.92 76.78 76.78 76.96 76.96 76.96 76.93 76.62 76.55 76.60 76.63 76.58 76.59 76.33 76.36 76.35 76.22 76.14 76.17 75.81 74.69 73.70 72.86 71.80 70.47 70.58 70.52 70.09
55.57 57.64 55.26 49.25 46.12 47.96 47.92 51.52 53.92 54.62 55.94 56.23 56.01 55.42 58.33 59.96 60.57 69.13 74.17 74.36 74.45 75.48 76.14 76.61 76.78 76.60 76.73 76.58 76.53 76.32 76.42 76.38 76.33 76.38 76.23 76.18 76.15 75.93 75.81 75.72 75.18 74.72 73.40 72.41 71.12 70.46 70.68 70.34 69.81
56.12 54.82 49.08 47.52 46.94 49.04 51.12 53.26 54.29 53.51 54.60 55.07 55.63 54.12 56.91 60.26 71.58 73.93 74.14 74.23 73.51 74.61 75.79 76.53 76.65 76.40 76.38 76.44 76.08 76.32 76.22 75.84 75.98 76.20 76.23 75.92 75.89 75.58 75.43 75.25 74.73 74.45 73.85 72.46 70.79 70.64 70.95 70.64 70.06
52.21 53.02 46.00 44.14 46.18 49.76 51.88 53.75 53.65 53.17 53.82 55.28 54.29 54.39 56.83 62.13 70.57 73.52 74.53 74.04 74.16 74.33 75.71 76.26 76.36 76.29 75.94 75.82 75.92 75.83 75.63 75.46 75.62 75.59 75.57 75.57 75.18 75.11 75.04 74.78 74.56 74.19 73.57 72.58 71.29 71.18 70.62 70.25 70.02
49.85 48.57 44.79 45.50 45.68 47.62 50.18 53.91 52.54 52.24 52.69 53.39 55.89 53.49 56.86 59.19 64.66 73.25 74.07 74.32 73.96 74.46 75.48 76.22 75.86 76.28 75.99 75.56 75.35 75.25 75.19 75.12 75.20 74.97 74.98 74.91 74.79 74.74 74.54 74.27 74.28 73.76 73.22 72.47 71.87 71.20 70.61 70.06 69.63
50.40 49.66 43.80 45.36 44.05 44.89 50.48 52.29 52.87 52.72 51.99 55.89 55.75 53.35 53.41 57.58 66.14 72.80 73.19 73.87 73.33 73.73 74.90 75.30 75.70 75.40 74.93 75.25 75.48 75.19 75.09 75.09 74.88 74.84 74.80 74.53 74.46 74.41 74.33 73.41 73.69 73.73 73.17 72.50 71.66 70.96 70.61 70.19 69.77
50.04 46.05 42.79 44.05 44.80 46.21 49.62 49.27 52.12 53.69 52.02 53.09 54.20 54.48 56.32 59.58 65.58 69.91 70.63 72.07 72.35 72.61 74.33 75.10 74.84 75.00 74.54 74.07 74.64 75.17 75.24 75.19 75.00 74.97 74.67 73.67 72.88 73.22 73.70 72.38 73.53 73.55 73.01 72.45 71.78 70.99 70.52 70.12 69.59
47.82 44.16 44.00 47.17 48.54 47.77 49.55 49.39 50.02 49.58 50.23 51.00 52.34 55.39 56.45 58.33 65.84 66.28 68.55 69.11 70.46 71.08 72.88 74.29 74.80 74.37 74.23 73.58 74.54 74.14 73.63 73.84 74.25 74.15 74.60 73.98 73.38 73.26 72.11 72.52 73.10 73.38 73.01 72.47 72.05 71.49 70.97 69.82 68.90
45.53 43.68 45.98 46.67 49.12 49.47 48.33 48.61 50.83 49.04 47.95 50.39 50.08 53.19 55.03 55.54 56.99 66.10 67.70 69.13 69.61 71.14 72.27 73.13 74.55 74.80 74.04 73.27 73.92 73.84 73.81 73.66 73.92 74.50 74.72 74.70 73.37 72.93 72.26 71.72 71.40 71.87 72.00 70.49 70.48 70.37 69.65 69.43 69.45
43.93 46.08 47.23 47.87 48.72 48.46 47.09 48.81 47.21 48.35 49.24 52.03 52.79 53.74 54.11 54.16 54.63 56.20 65.65 68.75 69.54 70.84 71.91 73.11 73.92 74.16 74.26 74.19 73.46 73.51 73.30 73.62 72.82 73.01 74.00 73.29 72.57 72.24 71.76 70.89 71.03 71.70 70.68 70.59 70.47 69.50 70.02 70.52 70.41
43.89 44.67 45.92 47.45 46.64 46.64 47.35 46.12 47.05 47.83 50.54 52.17 52.87 53.08 53.20 54.28 55.57 57.54 61.21 68.42 70.71 70.34 71.56 72.63 73.56 74.16 73.81 74.53 73.50 73.53 72.99 73.40 73.47 73.37 73.33 72.27 71.67 71.70 71.78 71.37 70.79 70.52 70.29 70.02 69.71 69.23 69.67 70.32 70.64
44.72 44.54 45.28 46.34 47.03 46.99 45.94 47.12 46.73 48.61 51.19 51.30 52.16 52.54 53.35 53.96 54.96 56.98 58.87 63.85 70.30 70.96 71.59 72.44 73.01 74.85 73.81 73.98 74.69 73.79 74.34 73.82 73.86 73.42 73.18 72.64 72.09 71.66 70.89 70.97 70.47 69.86 69.79 69.47 69.24 69.16 70.02 70.41 70.78
45.13 43.08 44.07 45.58 46.28 45.70 46.95 44.45 44.95 49.31 49.99 49.73 50.73 52.21 53.41 54.35 56.93 58.90 60.10 62.43 69.57 71.73 72.24 72.61 73.22 74.12 74.53 74.26 74.65 74.28 73.56 73.45 72.99 73.01 73.58 72.82 72.77 72.32 71.34 70.33 70.18 69.30 69.81 70.24 69.90 70.48 70.49 70.28 70.46
42.73 42.25 40.14 44.17 44.12 45.67 44.68 40.83 46.63 48.68 48.42 48.81 49.62 50.92 52.11 53.58 54.10 56.56 59.92 61.02 65.56 71.67 72.14 72.62 72.71 73.36 74.34 74.54 74.60 74.12 73.75 73.35 73.18 73.02 73.45 72.94 73.18 72.99 71.63 70.44 69.82 70.31 69.94 69.44 69.92 70.58 70.26 70.50 71.01
40.68 38.14 38.43 41.27 44.95 44.28 43.93 41.90 46.45 49.62 49.07 48.60 49.42 50.15 50.94 52.46 54.62 57.44 58.00 60.32 61.88 69.00 72.39 72.07 72.87 72.67 73.69 73.79 73.92 74.08 74.85 73.81 73.54 73.28 72.88 73.13 73.76 73.13 72.43 71.36 70.83 70.91 69.58 69.38 69.63 70.31 70.65 70.91 71.59
36.75 37.39 38.18 38.95 43.93 44.29 42.86 42.96 46.19 48.03 48.14 48.15 49.31 49.82 50.33 51.05 52.81 56.25 57.17 58.53 62.67 64.94 70.99 71.61 72.20 73.36 72.94 72.92 73.36 72.52 73.09 72.97 73.21 72.92 72.77 73.48 73.38 72.79 72.07 72.23 71.42 71.16 70.18 69.27 69.46 70.21 71.65 71.54 71.56
40.21 38.67 38.31 41.69 44.80 41.99 43.03 43.67 45.38 48.10 48.05 48.28 49.61 50.56 50.64 51.24 53.95 54.52 55.33 56.32 59.17 62.72 66.91 71.07 71.21 72.48 72.19 70.88 70.31 70.33 70.40 71.78 71.83 71.83 73.14 72.98 72.67 73.57 73.57 72.41 72.55 71.34 70.73 70.36 69.81 69.66 70.31 70.51 71.41
40.44 39.18 39.61 42.36 44.19 42.54 43.57 43.14 46.13 46.83 47.66 48.81 49.39 50.02 51.30 52.22 53.35 54.74 55.69 56.78 58.60 61.54 64.33 68.47 71.39 72.27 71.93 70.99 71.87 70.99 70.86 71.19 71.05 71.39 71.71 72.72 72.62 72.35 72.72 73.55 72.19 71.37 70.30 70.74 70.06 70.33 69.21 70.65 71.06
41.06 39.12 39.88 39.78 42.98 44.85 43.13 41.36 43.96 46.56 47.38 48.49 49.64 51.01 51.77 52.12 52.14 53.75 55.20 56.25 59.56 60.41 63.89 66.62 69.96 71.48 71.35 71.78 71.66 71.40 70.96 70.71 70.13 70.38 70.43 71.41 71.53 71.38 71.54 71.61 71.58 71.14 70.35 69.66 70.60 70.89 70.72 71.14 69.39
38.52 42.69 41.83 41.09 40.62 36.30 42.91 34.17 42.01 44.92 45.78 47.19 48.30 49.90 50.89 51.81 52.77 53.14 55.26 56.31 58.46 61.02 62.17 64.66 67.57 69.94 70.31 71.50 70.70 70.06 68.85 68.11 69.37 70.16 70.50 70.67 70.94 71.03 71.51 71.67 71.48 72.08 71.91 71.83 71.55 71.33 71.24 69.74 68.43
41.03 44.58 43.40 42.66 40.46 38.88 39.57 35.84 39.85 44.44 42.80 45.56 47.77 49.11 50.72 51.77 52.10 53.19 54.21 55.50 56.91 59.40 61.90 63.55 66.98 69.30 70.79 71.20 72.03 70.43 70.40 70.84 70.93 70.65 71.03 72.02 71.68 71.58 71.31 71.63 71.64 70.38 70.84 70.41 68.96 64.93 63.73 62.05 63.27
45.46 43.65 43.15 40.77 39.63 32.55 38.04 37.24 37.22 40.80 43.26 44.98 47.30 48.45 49.50 51.54 52.46 53.49 54.63 55.17 55.22 57.23 60.88 62.41 65.15 68.43 70.25 71.11 71.36 71.32 70.72 70.42 69.35 70.13 69.63 70.33 71.08 71.58 71.71 70.99 68.01 66.36 65.74 66.97 67.62 64.65 64.38 63.47 62.22
43.85 40.36 33.20 31.56 32.04 30.72 38.21 35.71 37.94 43.68 45.22 46.46 47.10 48.68 50.42 51.79 52.40 52.65 53.26 54.22 55.11 55.13 58.14 61.23 62.60 65.48 66.95 69.56 70.93 71.16 70.96 70.68 69.99 69.84 69.37 69.64 69.18 69.62 70.65 71.13 70.47 68.84 67.71 69.36 67.78 65.74 63.25 63.20 62.91
40.80 38.99 32.19 24.86 26.96 30.30 37.06 31.65 37.40 45.03 47.63 48.16 48.70 49.46 50.59 51.35 52.50 52.75 53.13 53.42 55.02 55.34 55.42 59.31 61.27 63.43 64.45 64.52 65.48 66.08 66.56 66.43 67.17 68.22 67.36 67.68 67.99 68.92 70.79 70.82 71.14 70.84 70.42 70.42 68.72 67.03 65.57 65.44 66.08
39.40 36.42 40.67 34.71 34.73 30.14 33.48 37.74 42.93 45.22 46.33 47.28 47.58 48.74 49.34 50.47 51.42 52.68 54.07 54.04 54.30 56.59 56.68 57.68 59.54 61.77 61.57 61.36 62.47 63.05 63.65 63.89 63.56 65.14 65.94 65.07 66.38 66.30 67.67 69.00 69.13 69.79 70.72 70.62 70.40 68.75 68.47 69.02 69.42
41.90 43.36 33.76 35.83 24.09 23.31 31.17 33.33 35.18 40.70 43.01 45.62 46.42 46.91 48.29 50.31 51.02 52.09 53.18 54.41 54.72 54.91 57.27 57.62 58.73 59.48 60.13 60.55 61.14 61.07 62.13 62.94 63.45 63.38 63.59 64.25 64.75 64.72 65.75 67.15 67.17 67.17 68.01 69.30 70.35 69.89 70.15 69.85 69.11
38.84 37.66 38.30 36.10 32.23 26.77 25.72 32.03 42.17 41.46 43.58 43.75 45.63 46.94 47.19 48.02 49.56 51.05 52.47 54.15 55.55 56.35 55.51 57.29 57.45 56.08 56.50 59.29 60.35 61.07 61.72 62.31 62.36 62.33 63.15 63.48 63.71 64.00 64.36 64.42 64.62 65.57 66.36 67.41 67.94 67.56 67.03 66.58 67.07
39.92 37.63 37.70 31.48 28.91 33.08 31.56 30.91 43.78 44.95 44.79 45.55 46.06 47.13 47.87 47.73 48.62 49.65 50.91 52.63 53.48 54.30 55.87 56.26 57.23 58.33 57.87 57.36 57.55 59.40 61.11 61.49 61.77 62.04 62.73 63.46 63.11 63.71 63.18 63.76 63.65 64.22 64.25 65.60 65.14 64.31 64.28 63.64 63.20

GFSSGP_sfc_wetblb_084.txt.gz
Wetbulb
67.11 63.16 64.22 62.07 54.48 54.87 53.61 53.89 56.53 55.16 55.46 58.13 58.99 62.99 62.11 64.18 63.05 61.50 74.30 74.67 73.69 75.47 77.78 77.53 77.61 78.04 78.37 78.19 77.92 77.49 76.98 76.88 76.63 76.71 76.63 76.63 76.91 77.16 76.92 76.90 76.70 76.53 75.26 74.45 73.59 73.11 72.82 73.29 73.91
62.53 62.37 62.80 59.24 52.15 50.96 53.29 55.30 55.15 56.16 57.78 59.26 58.17 60.46 62.53 62.01 67.12 70.79 72.48 74.34 74.96 76.50 78.38 77.56 77.38 77.76 78.04 78.04 77.58 77.26 77.01 76.81 76.63 76.61 76.63 76.83 76.83 76.80 76.85 76.65 76.33 75.57 74.74 73.59 72.55 71.88 72.04 72.78 73.71
60.87 61.52 58.06 55.35 52.77 50.58 53.59 54.15 55.34 56.87 58.60 58.85 58.92 61.59 62.24 62.55 66.03 71.28 74.77 74.44 75.56 76.98 78.16 78.03 77.21 77.46 77.81 77.54 77.33 76.98 76.91 76.81 76.78 76.81 76.68 76.60 76.65 76.49 76.57 76.58 76.15 75.08 74.03 73.14 72.23 71.14 71.33 71.65 72.09
59.79 60.02 58.64 51.76 50.19 52.62 52.57 55.32 56.34 56.66 58.42 58.87 59.24 58.25 62.30 65.19 66.86 71.81 74.81 74.82 75.63 76.66 77.49 77.00 76.93 77.05 77.38 77.48 77.20 77.08 77.05 76.88 76.80 76.86 76.63 76.48 76.52 76.26 76.24 76.32 75.95 75.14 73.95 72.93 71.90 71.37 71.36 70.88 70.61
59.74 58.07 52.31 50.92 51.07 51.86 54.31 55.67 56.45 55.54 57.24 57.58 58.62 57.11 60.37 67.62 74.64 75.18 74.57 75.05 74.70 75.77 76.95 78.02 76.83 76.78 77.08 77.08 77.08 76.82 76.87 76.59 76.57 76.63 76.53 76.37 76.24 75.98 76.08 76.04 75.45 75.02 74.35 72.85 71.26 71.13 71.28 71.12 70.67
54.19 55.60 50.05 48.83 50.50 51.94 54.34 56.12 55.96 55.56 56.04 57.57 57.09 57.40 59.80 63.68 67.29 74.80 75.08 74.96 75.26 75.33 76.46 77.37 76.57 76.50 76.42 76.65 76.51 76.53 76.28 76.18 76.37 76.22 76.30 76.22 76.03 75.91 75.83 75.47 75.18 74.82 74.23 73.00 71.48 71.29 71.31 70.99 70.77
51.86 52.01 49.10 50.71 51.08 50.37 53.57 56.32 55.16 55.28 55.26 55.64 58.13 56.08 59.83 60.70 63.41 72.62 75.73 76.10 75.11 75.11 75.64 77.05 76.58 76.51 76.14 76.06 76.02 76.00 75.75 75.88 75.82 75.64 75.65 75.60 75.73 75.45 75.23 74.81 74.80 74.40 73.90 72.92 72.04 71.35 70.96 70.50 70.23
53.59 52.29 49.10 49.26 48.67 48.77 53.28 53.77 55.75 55.17 54.46 57.61 57.87 56.01 57.61 60.34 64.65 69.36 75.00 75.56 75.03 74.54 74.87 75.99 76.61 75.92 75.35 75.47 75.88 75.64 75.57 75.49 75.26 75.28 75.44 75.19 75.15 74.98 74.83 74.02 74.19 74.06 73.43 72.71 72.01 71.23 70.90 70.14 69.81
54.24 48.53 46.08 47.56 46.36 48.71 52.32 51.53 55.32 55.74 54.04 55.07 56.30 57.01 58.81 60.40 64.07 67.47 71.42 74.30 74.06 73.40 73.93 75.65 76.11 76.35 75.44 74.70 75.34 75.47 75.46 75.40 75.16 75.20 75.11 74.49 74.65 74.62 74.42 72.74 74.05 73.80 73.18 72.41 71.74 71.26 70.76 69.63 69.35
50.36 47.29 47.40 50.05 50.90 49.98 51.41 51.78 52.54 52.21 52.71 53.02 54.51 56.94 58.48 59.32 59.42 62.57 66.42 69.95 73.02 72.65 72.95 74.77 76.25 76.21 75.70 74.26 75.51 74.62 74.42 74.61 74.59 74.59 75.29 74.69 74.46 74.06 72.20 72.96 73.48 73.41 72.79 71.89 71.77 71.37 70.28 69.31 68.44
50.20 47.28 50.22 50.68 51.91 52.39 51.23 50.74 52.65 51.02 50.19 52.97 52.89 55.15 56.88 57.81 58.93 58.06 60.18 66.93 70.90 73.74 73.40 74.22 76.05 76.81 75.99 74.71 74.78 74.36 74.16 73.79 73.86 74.30 74.81 75.18 73.96 73.72 72.41 72.16 72.10 72.00 72.04 70.58 70.50 70.32 69.56 69.38 69.41
47.26 50.04 50.57 50.89 51.24 50.78 49.88 51.69 51.16 51.55 51.98 54.60 54.88 55.60 56.05 56.48 57.72 58.55 58.35 61.20 68.78 72.47 73.22 74.33 75.36 76.52 76.63 75.30 74.73 74.91 73.89 73.63 73.16 73.56 75.02 75.13 73.86 73.17 72.42 71.06 71.16 71.46 70.83 70.48 70.70 69.71 70.45 70.87 71.46
48.36 49.31 50.14 51.21 51.09 50.70 51.07 49.46 49.76 50.78 52.95 54.19 54.88 55.28 55.50 56.33 57.54 59.20 60.10 61.01 66.21 70.45 73.23 74.05 75.26 76.33 76.19 75.85 74.95 75.33 74.45 73.79 73.69 73.29 75.07 74.81 73.92 72.74 72.23 71.82 71.50 71.72 71.08 71.02 70.76 70.03 70.34 71.52 72.98
49.09 48.46 48.78 49.54 50.05 50.45 48.73 49.59 50.42 50.90 52.99 53.26 53.90 54.54 55.25 55.83 56.90 58.61 59.55 60.63 62.52 67.77 72.52 74.62 74.96 76.59 76.31 76.09 76.69 75.95 76.14 74.87 74.03 72.63 73.33 74.77 73.84 73.87 72.00 72.04 71.68 71.09 71.10 70.67 70.27 69.89 70.01 72.40 73.41
48.98 46.48 48.54 49.20 49.92 49.30 50.24 47.35 48.51 52.27 52.99 52.02 52.71 53.80 54.77 55.37 56.74 57.88 60.59 62.06 64.01 66.39 71.79 73.86 75.13 75.98 76.49 75.58 75.62 75.58 75.06 74.39 73.78 73.09 75.18 74.14 74.32 74.03 73.64 71.14 71.15 70.79 71.78 72.14 71.46 71.16 71.21 71.96 72.85
46.60 46.64 44.07 48.44 48.10 48.61 47.52 43.81 49.07 51.12 51.37 51.23 52.40 52.98 53.75 55.16 56.35 58.12 59.48 61.02 62.94 66.07 70.43 74.33 73.86 75.27 76.76 76.71 75.68 75.68 74.78 74.34 74.08 73.91 73.93 74.36 74.16 73.71 73.14 71.13 71.06 71.25 71.66 70.87 69.73 69.88 70.51 72.18 72.11
45.78 41.94 42.74 43.86 48.17 47.48 47.29 44.88 48.55 51.47 51.64 51.38 52.34 53.09 53.47 54.47 56.50 58.23 59.30 60.59 62.36 64.48 67.92 72.67 75.73 75.19 75.57 76.23 75.43 76.30 77.25 75.25 74.42 74.47 74.21 74.89 74.35 73.71 73.41 71.39 71.38 73.18 71.03 70.38 70.04 69.85 71.11 70.82 71.90
41.60 41.73 42.87 42.93 46.41 47.63 46.64 46.60 49.41 51.33 51.37 51.38 52.19 52.63 53.36 53.92 55.26 57.43 58.98 60.71 62.47 63.92 68.03 70.51 73.45 75.69 76.37 75.65 76.19 74.75 74.34 74.78 74.55 74.77 74.30 74.96 74.96 74.30 74.43 72.79 73.51 73.11 70.99 70.03 70.00 71.70 70.65 70.81 70.84
43.90 42.91 42.62 45.20 47.85 46.67 46.44 46.71 48.58 50.89 51.53 51.37 52.07 52.66 53.41 54.28 56.30 57.85 58.69 60.60 61.83 63.61 64.63 67.70 72.65 75.24 75.39 74.39 73.49 73.18 72.37 73.50 73.92 74.31 75.91 75.02 74.94 74.64 74.87 73.45 73.78 73.83 72.90 73.21 73.01 71.14 70.94 68.63 71.28
44.29 42.94 43.29 45.84 47.38 46.78 46.54 46.11 49.13 50.43 50.84 51.57 51.89 52.40 53.21 54.22 55.31 56.56 58.12 59.56 61.46 63.00 64.36 66.35 70.72 74.48 75.23 74.54 74.20 73.79 73.31 72.79 73.23 73.86 74.75 74.87 74.31 74.41 74.67 74.69 73.96 75.07 72.76 74.09 73.57 72.68 69.47 68.85 71.22
44.29 43.31 43.57 43.31 46.53 47.78 46.72 45.29 47.58 49.96 51.21 51.73 52.77 53.54 53.65 53.94 54.76 56.16 56.93 58.88 60.50 62.12 64.25 65.33 68.19 72.81 76.01 76.60 75.04 74.15 73.79 73.21 71.84 72.89 72.75 73.82 73.80 73.91 74.23 75.20 74.43 74.59 73.63 71.74 73.75 72.79 71.75 66.85 70.94
42.37 46.25 44.75 44.14 43.73 40.64 47.20 38.24 45.66 48.32 48.70 50.34 51.67 52.74 53.31 54.24 55.15 55.88 56.72 58.09 59.11 60.74 62.93 65.06 66.81 69.88 73.26 75.48 74.65 74.03 71.63 70.52 71.66 72.53 72.99 73.28 73.36 73.03 73.36 74.64 73.50 73.49 72.34 72.38 72.18 72.04 72.27 71.09 70.11
44.14 46.92 46.03 45.52 44.01 43.73 43.48 41.14 44.41 47.94 46.63 48.23 50.53 51.76 52.46 53.71 54.68 55.40 56.87 58.43 59.84 60.95 61.53 63.59 66.44 67.77 70.85 73.66 75.05 73.24 72.25 72.05 72.17 72.77 75.13 74.91 73.98 73.24 72.70 73.17 73.35 73.57 72.64 73.64 72.90 72.81 71.14 70.09 67.53
47.85 46.22 46.37 46.33 44.60 37.99 42.49 41.38 42.84 44.07 45.10 47.25 49.81 51.25 52.82 54.58 55.61 56.70 57.89 58.84 59.40 60.90 61.25 61.84 64.66 67.26 69.31 71.67 73.30 74.37 74.20 73.22 71.64 72.75 72.14 72.42 72.35 72.78 73.14 72.99 72.77 73.40 72.00 72.71 72.00 71.03 69.88 67.42 66.70
47.10 44.34 38.04 37.08 37.66 36.79 42.48 39.25 41.49 45.84 47.93 48.93 49.33 51.39 53.19 54.84 55.61 56.06 56.56 57.37 58.30 59.19 61.04 61.63 61.76 65.06 69.06 70.47 71.44 72.00 72.79 73.94 73.70 73.59 72.60 72.91 71.50 72.03 74.13 73.45 73.35 72.97 73.02 71.85 70.59 70.08 69.70 67.51 66.30
44.44 43.94 37.46 29.70 32.82 35.68 40.65 35.58 41.62 47.58 49.30 50.55 51.23 52.35 53.35 54.09 55.20 55.73 56.45 57.43 57.84 58.61 59.69 61.63 60.72 62.38 66.65 70.84 70.96 71.48 72.19 72.70 73.00 73.45 72.43 71.80 70.57 72.13 74.95 74.45 74.05 73.82 72.42 71.06 70.30 69.26 68.52 66.87 66.14
43.88 40.29 44.88 37.83 38.29 34.50 38.07 41.04 45.27 48.05 47.97 48.95 49.88 51.15 51.94 53.52 54.57 55.23 56.42 57.30 58.01 58.79 59.31 60.37 61.66 61.70 63.96 68.22 71.19 71.72 72.92 73.25 72.85 73.85 73.44 71.68 73.00 71.18 72.75 73.50 73.55 73.44 73.19 73.03 72.67 70.39 69.75 69.63 68.33
43.94 46.07 37.56 39.65 28.39 27.63 35.33 36.51 38.38 43.42 45.08 47.42 48.28 49.24 51.23 52.54 53.28 54.51 55.31 56.20 57.87 58.98 59.79 60.34 61.89 61.87 62.78 65.79 67.74 69.02 69.71 69.34 68.15 68.40 68.40 68.22 68.22 68.49 68.62 70.00 71.35 71.73 72.00 71.97 72.56 72.76 71.85 70.35 68.84
42.42 40.40 40.69 40.09 38.17 30.33 29.35 35.52 44.85 44.14 45.67 46.62 48.30 48.83 50.91 51.75 52.50 53.35 54.18 55.34 56.44 57.41 58.14 59.78 59.71 61.18 61.96 63.42 64.94 65.06 64.59 64.82 65.67 65.60 65.79 66.06 67.17 67.04 66.54 67.43 68.40 68.97 69.60 70.89 71.30 71.70 70.69 69.76 70.24
43.56 41.34 41.96 36.07 33.52 36.11 35.15 35.30 46.43 47.18 48.23 49.09 48.64 49.65 51.61 52.46 52.49 53.25 53.68 54.20 54.46 54.98 56.37 57.77 59.47 58.72 60.56 61.00 62.03 62.03 63.25 63.89 64.53 64.25 65.00 65.49 65.84 66.00 65.63 65.78 65.82 66.20 67.19 68.75 68.67 68.43 68.66 68.38 68.00